| time (UTC) | temp C | wind direction | speed KPH | gust KPH | rain 1hr cm | rain 24hr cm | rain mn cm | humidity % | barometer mb |
| 20260506002237 | 5 | 270 | 0.0 | 0.0 | 0.00 | 0.00 | 0.00 | 72 | 919.7 |
| 20260506002128 | 5 | 0 | 1.6 | 0.0 | 0.00 | 0.00 | 0.00 | 72 | 919.7 |
| 20260506002020 | 5 | 0 | 1.6 | 0.0 | 0.00 | 0.00 | 0.00 | 72 | 919.7 |
| 20260506001912 | 5 | 0 | 0.0 | 0.0 | 0.00 | 0.00 | 0.00 | 72 | 919.8 |
| 20260506001804 | 5 | 270 | 0.0 | 0.0 | 0.00 | 0.00 | 0.00 | 72 | 919.8 |
| 20260506001655 | 5 | 270 | 9.7 | 0.0 | 0.00 | 0.00 | 0.00 | 72 | 919.8 |
| 20260506001547 | 5 | 270 | 8.0 | 0.0 | 0.00 | 0.00 | 0.00 | 72 | 919.8 |
| 20260506001439 | 5 | 315 | 0.0 | 0.0 | 0.00 | 0.00 | 0.00 | 72 | 919.8 |
| 20260506001330 | 5 | 0 | 0.0 | 0.0 | 0.00 | 0.00 | 0.00 | 72 | 919.8 |
| 20260506001222 | 5 | 315 | 25.7 | 0.0 | 0.00 | 0.00 | 0.00 | 72 | 919.8 |
| 20260506001006 | 5 | 0 | 0.0 | 0.0 | 0.00 | 0.00 | 0.00 | 72 | 919.8 |
| 20260506000857 | 5 | 270 | 0.0 | 0.0 | 0.00 | 0.00 | 0.00 | 72 | 919.8 |
| 20260506000749 | 5 | 270 | 0.0 | 0.0 | 0.00 | 0.00 | 0.00 | 72 | 919.8 |
| 20260506000641 | 5 | 0 | 0.0 | 0.0 | 0.00 | 0.00 | 0.00 | 72 | 919.8 |
| 20260506000532 | 5 | 0 | 0.0 | 0.0 | 0.00 | 0.00 | 0.00 | 72 | 919.8 |
| 20260506000424 | 5 | 0 | 0.0 | 0.0 | 0.00 | 0.00 | 0.00 | 72 | 919.8 |
| 20260506000316 | 5 | 0 | 8.0 | 0.0 | 0.00 | 0.00 | 0.00 | 72 | 919.8 |
| 20260506000208 | 6 | 315 | 3.2 | 0.0 | 0.00 | 0.00 | 0.00 | 72 | 919.8 |
| 20260506000146 | 6 | 0 | 19.3 | 0.0 | 0.00 | 0.00 | 0.00 | 73 | 919.8 |
| 20260506000059 | 6 | 0 | 19.3 | 0.0 | 0.00 | 0.00 | 0.00 | 73 | 919.8 |
| 20260505235951 | 6 | 315 | 25.7 | 0.0 | 0.00 | 0.00 | 0.00 | 73 | 919.8 |
| 20260505235843 | 6 | 0 | 20.9 | 0.0 | 0.00 | 0.00 | 0.00 | 73 | 919.8 |
| 20260505235735 | 6 | 0 | 25.7 | 0.0 | 0.00 | 0.00 | 0.00 | 73 | 919.8 |
| 20260505235626 | 5 | 0 | 27.4 | 0.0 | 0.00 | 0.00 | 0.00 | 73 | 919.8 |
| 20260505235518 | 5 | 0 | 27.4 | 0.0 | 0.00 | 0.00 | 0.00 | 73 | 919.9 |
| 20260505235410 | 5 | 315 | 1.6 | 0.0 | 0.00 | 0.00 | 0.00 | 73 | 919.9 |
| 20260505235304 | 5 | 315 | 19.3 | 0.0 | 0.00 | 0.00 | 0.00 | 72 | 919.9 |
| 20260505235046 | 5 | 0 | 0.0 | 0.0 | 0.00 | 0.00 | 0.00 | 72 | 919.9 |
| 20260505234937 | 5 | 315 | 0.0 | 0.0 | 0.00 | 0.00 | 0.00 | 72 | 919.9 |
| 20260505234828 | 5 | 45 | 0.0 | 0.0 | 0.00 | 0.00 | 0.00 | 72 | 919.9 |
| 20260505234720 | 5 | 315 | 1.6 | 0.0 | 0.00 | 0.00 | 0.00 | 72 | 920.0 |
| 20260505234612 | 5 | 315 | 0.0 | 0.0 | 0.00 | 0.00 | 0.00 | 72 | 920.0 |
| 20260505234504 | 5 | 315 | 0.0 | 0.0 | 0.00 | 0.00 | 0.00 | 72 | 920.0 |
| 20260505234355 | 5 | 315 | 0.0 | 0.0 | 0.00 | 0.00 | 0.00 | 72 | 920.0 |
| 20260505234247 | 5 | 315 | 3.2 | 0.0 | 0.00 | 0.00 | 0.00 | 72 | 919.9 |
| 20260505234139 | 5 | 315 | 3.2 | 0.0 | 0.00 | 0.00 | 0.00 | 72 | 920.0 |
| 20260505234030 | 5 | 315 | 3.2 | 0.0 | 0.00 | 0.00 | 0.00 | 72 | 920.1 |
| 20260505233922 | 5 | 0 | 0.0 | 0.0 | 0.00 | 0.00 | 0.00 | 72 | 920.0 |
| 20260505233814 | 5 | 0 | 0.0 | 0.0 | 0.00 | 0.00 | 0.00 | 72 | 920.1 |
| 20260505233706 | 5 | 0 | 0.0 | 0.0 | 0.00 | 0.00 | 0.00 | 72 | 920.1 |
| 20260505233557 | 5 | 0 | 0.0 | 0.0 | 0.00 | 0.00 | 0.00 | 72 | 920.0 |
| 20260505233449 | 5 | 0 | 0.0 | 0.0 | 0.00 | 0.00 | 0.00 | 72 | 920.0 |
| 20260505233341 | 6 | 0 | 0.0 | 0.0 | 0.00 | 0.00 | 0.00 | 72 | 920.0 |
| 20260505233233 | 6 | 0 | 0.0 | 0.0 | 0.00 | 0.00 | 0.00 | 72 | 920.0 |
| 20260505233124 | 6 | 0 | 0.0 | 0.0 | 0.00 | 0.00 | 0.00 | 72 | 920.0 |
| 20260505233016 | 6 | 0 | 0.0 | 0.0 | 0.00 | 0.00 | 0.00 | 72 | 920.0 |
| 20260505232908 | 6 | 0 | 0.0 | 0.0 | 0.00 | 0.00 | 0.00 | 72 | 920.0 |
| 20260505232759 | 6 | 0 | 0.0 | 0.0 | 0.00 | 0.00 | 0.00 | 72 | 920.0 |
| 20260505232651 | 6 | 0 | 4.8 | 0.0 | 0.00 | 0.00 | 0.00 | 72 | 920.0 |
| 20260505232543 | 6 | 315 | 12.9 | 0.0 | 0.00 | 0.00 | 0.00 | 72 | 920.0 |
| 20260505232435 | 6 | 0 | 0.0 | 0.0 | 0.00 | 0.00 | 0.00 | 72 | 920.0 |
| 20260505232326 | 6 | 0 | 0.0 | 0.0 | 0.00 | 0.00 | 0.00 | 72 | 920.0 |
| 20260505232218 | 6 | 0 | 0.0 | 0.0 | 0.00 | 0.00 | 0.00 | 72 | 920.0 |
| 20260505232110 | 6 | 0 | 0.0 | 0.0 | 0.00 | 0.00 | 0.00 | 71 | 920.0 |
| 20260505232001 | 6 | 315 | 0.0 | 0.0 | 0.00 | 0.00 | 0.00 | 71 | 920.0 |
| 20260505231853 | 6 | 315 | 0.0 | 0.0 | 0.00 | 0.00 | 0.00 | 71 | 920.1 |
| 20260505231745 | 6 | 315 | 0.0 | 0.0 | 0.00 | 0.00 | 0.00 | 71 | 920.1 |
| 20260505231637 | 6 | 315 | 8.0 | 0.0 | 0.00 | 0.00 | 0.00 | 71 | 920.0 |
| 20260505231528 | 6 | 0 | 16.1 | 0.0 | 0.00 | 0.00 | 0.00 | 71 | 920.0 |
| 20260505231420 | 6 | 315 | 0.0 | 0.0 | 0.00 | 0.00 | 0.00 | 71 | 920.0 |
| 20260505231312 | 6 | 315 | 0.0 | 0.0 | 0.00 | 0.00 | 0.00 | 71 | 920.0 |
| 20260505231203 | 6 | 315 | 9.7 | 0.0 | 0.00 | 0.00 | 0.00 | 71 | 920.0 |
| 20260505231055 | 6 | 315 | 4.8 | 0.0 | 0.00 | 0.00 | 0.00 | 71 | 920.0 |
| 20260505230947 | 6 | 315 | 3.2 | 0.0 | 0.00 | 0.00 | 0.00 | 71 | 920.0 |
| 20260505230839 | 6 | 315 | 14.5 | 0.0 | 0.00 | 0.00 | 0.00 | 71 | 920.1 |
| 20260505230730 | 6 | 315 | 38.6 | 0.0 | 0.00 | 0.00 | 0.00 | 72 | 920.0 |
| 20260505230622 | 6 | 0 | 12.9 | 0.0 | 0.00 | 0.00 | 0.00 | 72 | 920.0 |
| 20260505230514 | 6 | 0 | 0.0 | 0.0 | 0.00 | 0.00 | 0.00 | 72 | 920.1 |
| 20260505230406 | 6 | 315 | 0.0 | 0.0 | 0.00 | 0.00 | 0.00 | 72 | 920.1 |
| 20260505230257 | 6 | 0 | 0.0 | 0.0 | 0.00 | 0.00 | 0.00 | 72 | 920.1 |
| 20260505230149 | 6 | 0 | 0.0 | 0.0 | 0.00 | 0.00 | 0.00 | 72 | 920.0 |
| 20260505230041 | 6 | 0 | 0.0 | 0.0 | 0.00 | 0.00 | 0.00 | 72 | 920.0 |
| 20260505225932 | 6 | 180 | 0.0 | 0.0 | 0.00 | 0.00 | 0.00 | 72 | 920.0 |
| 20260505225824 | 6 | 180 | 0.0 | 0.0 | 0.00 | 0.00 | 0.00 | 72 | 920.0 |
| 20260505225716 | 6 | 0 | 14.5 | 0.0 | 0.00 | 0.00 | 0.00 | 72 | 920.1 |
| 20260505225459 | 6 | 0 | 1.6 | 0.0 | 0.00 | 0.00 | 0.00 | 72 | 920.1 |
| 20260505225351 | 6 | 315 | 8.0 | 0.0 | 0.00 | 0.00 | 0.00 | 72 | 920.0 |
| 20260505225243 | 6 | 315 | 1.6 | 0.0 | 0.00 | 0.00 | 0.00 | 72 | 920.0 |
| 20260505225135 | 6 | 315 | 43.5 | 0.0 | 0.00 | 0.00 | 0.00 | 72 | 920.0 |
| 20260505225026 | 7 | 315 | 1.6 | 0.0 | 0.00 | 0.00 | 0.00 | 72 | 920.0 |
| 20260505224918 | 7 | 315 | 0.0 | 0.0 | 0.00 | 0.00 | 0.00 | 72 | 920.0 |
| 20260505224810 | 7 | 270 | 12.9 | 0.0 | 0.00 | 0.00 | 0.00 | 72 | 920.0 |
| 20260505224701 | 7 | 315 | 0.0 | 0.0 | 0.00 | 0.00 | 0.00 | 72 | 920.0 |
| 20260505224553 | 7 | 0 | 4.8 | 0.0 | 0.00 | 0.00 | 0.00 | 72 | 920.0 |
| 20260505224445 | 7 | 0 | 0.0 | 0.0 | 0.00 | 0.00 | 0.00 | 72 | 919.9 |
| 20260505224337 | 7 | 315 | 0.0 | 0.0 | 0.00 | 0.00 | 0.00 | 72 | 919.9 |
| 20260505224228 | 7 | 315 | 0.0 | 0.0 | 0.00 | 0.00 | 0.00 | 72 | 919.9 |
| 20260505224120 | 7 | 315 | 0.0 | 0.0 | 0.00 | 0.00 | 0.00 | 72 | 919.9 |
| 20260505224012 | 7 | 315 | 11.3 | 0.0 | 0.00 | 0.00 | 0.00 | 72 | 919.8 |
| 20260505223904 | 7 | 0 | 0.0 | 0.0 | 0.00 | 0.00 | 0.00 | 72 | 919.9 |
| 20260505223755 | 7 | 225 | 0.0 | 0.0 | 0.00 | 0.00 | 0.00 | 72 | 919.9 |
| 20260505223647 | 7 | 0 | 11.3 | 0.0 | 0.00 | 0.00 | 0.00 | 72 | 919.8 |
| 20260505223430 | 7 | 0 | 0.0 | 0.0 | 0.00 | 0.00 | 0.00 | 72 | 919.8 |
| 20260505223322 | 7 | 225 | 12.9 | 0.0 | 0.00 | 0.00 | 0.00 | 72 | 919.9 |
| 20260505223214 | 7 | 225 | 0.0 | 0.0 | 0.00 | 0.00 | 0.00 | 72 | 919.8 |
| 20260505223106 | 7 | 0 | 11.3 | 0.0 | 0.00 | 0.00 | 0.00 | 72 | 919.8 |
| 20260505222957 | 7 | 0 | 16.1 | 0.0 | 0.00 | 0.00 | 0.00 | 73 | 919.8 |
| 20260505222849 | 7 | 270 | 9.7 | 0.0 | 0.00 | 0.00 | 0.00 | 73 | 919.8 |
| 20260505222741 | 7 | 315 | 12.9 | 0.0 | 0.00 | 0.00 | 0.00 | 73 | 919.8 |
| 20260505222632 | 7 | 315 | 14.5 | 0.0 | 0.00 | 0.00 | 0.00 | 73 | 919.8 |
| 20260505222524 | 7 | 315 | 3.2 | 0.0 | 0.00 | 0.00 | 0.00 | 73 | 919.8 |
| 20260505222416 | 7 | 315 | 14.5 | 0.0 | 0.00 | 0.00 | 0.00 | 73 | 919.9 |
| 20260505222308 | 7 | 0 | 46.7 | 0.0 | 0.00 | 0.00 | 0.00 | 73 | 919.8 |
| 20260505222159 | 7 | 0 | 17.7 | 0.0 | 0.00 | 0.00 | 0.00 | 73 | 919.8 |
| 20260505222051 | 7 | 315 | 12.9 | 0.0 | 0.00 | 0.00 | 0.00 | 73 | 919.8 |
| 20260505221943 | 7 | 315 | 33.8 | 0.0 | 0.00 | 0.00 | 0.00 | 73 | 919.8 |
| 20260505221834 | 7 | 315 | 16.1 | 0.0 | 0.00 | 0.00 | 0.00 | 73 | 919.8 |
| 20260505221726 | 7 | 315 | 30.6 | 0.0 | 0.00 | 0.00 | 0.00 | 73 | 919.8 |
| 20260505221510 | 7 | 315 | 1.6 | 0.0 | 0.00 | 0.00 | 0.00 | 73 | 919.8 |
| 20260505221401 | 7 | 315 | 12.9 | 0.0 | 0.00 | 0.00 | 0.00 | 73 | 919.8 |
| 20260505221253 | 7 | 315 | 1.6 | 0.0 | 0.00 | 0.00 | 0.00 | 73 | 919.8 |
| 20260505221145 | 7 | 315 | 11.3 | 0.0 | 0.00 | 0.00 | 0.00 | 73 | 919.8 |
| 20260505221037 | 7 | 315 | 0.0 | 0.0 | 0.00 | 0.00 | 0.00 | 73 | 919.8 |
| 20260505220928 | 7 | 315 | 3.2 | 0.0 | 0.00 | 0.00 | 0.00 | 72 | 919.8 |
| 20260505220820 | 7 | 270 | 8.0 | 0.0 | 0.00 | 0.00 | 0.00 | 72 | 919.8 |
| 20260505220712 | 7 | 270 | 0.0 | 0.0 | 0.00 | 0.00 | 0.00 | 72 | 919.7 |
| 20260505220603 | 7 | 315 | 0.0 | 0.0 | 0.00 | 0.00 | 0.00 | 72 | 919.7 |
| 20260505220455 | 7 | 315 | 0.0 | 0.0 | 0.00 | 0.00 | 0.00 | 72 | 919.7 |
| 20260505220347 | 7 | 315 | 11.3 | 0.0 | 0.00 | 0.00 | 0.00 | 72 | 919.7 |
| 20260505220239 | 6 | 315 | 11.3 | 0.0 | 0.00 | 0.00 | 0.00 | 72 | 919.7 |
| 20260505220130 | 6 | 270 | 9.7 | 0.0 | 0.00 | 0.00 | 0.00 | 72 | 919.7 |
| 20260505220022 | 6 | 315 | 0.0 | 0.0 | 0.00 | 0.00 | 0.00 | 72 | 919.7 |
| 20260505215914 | 6 | 315 | 0.0 | 0.0 | 0.00 | 0.00 | 0.00 | 72 | 919.6 |
| 20260505215806 | 6 | 315 | 9.7 | 0.0 | 0.00 | 0.00 | 0.00 | 72 | 919.7 |
| 20260505215657 | 6 | 315 | 11.3 | 0.0 | 0.00 | 0.00 | 0.00 | 72 | 919.7 |
| 20260505215549 | 6 | 315 | 1.6 | 0.0 | 0.00 | 0.00 | 0.00 | 72 | 919.7 |
| 20260505215441 | 6 | 315 | 9.7 | 0.0 | 0.00 | 0.00 | 0.00 | 72 | 919.7 |
| 20260505215332 | 6 | 315 | 0.0 | 0.0 | 0.00 | 0.00 | 0.00 | 72 | 919.7 |
| 20260505215224 | 6 | 315 | 0.0 | 0.0 | 0.00 | 0.00 | 0.00 | 72 | 919.7 |
| 20260505215116 | 6 | 315 | 1.6 | 0.0 | 0.00 | 0.00 | 0.00 | 72 | 919.7 |
| 20260505215008 | 6 | 315 | 4.8 | 0.0 | 0.00 | 0.00 | 0.00 | 72 | 919.7 |
| 20260505214643 | 6 | 315 | 1.6 | 0.0 | 0.00 | 0.00 | 0.00 | 72 | 919.7 |
| 20260505214534 | 6 | 315 | 11.3 | 0.0 | 0.00 | 0.00 | 0.00 | 72 | 919.6 |
| 20260505214426 | 6 | 0 | 0.0 | 0.0 | 0.00 | 0.00 | 0.00 | 72 | 919.7 |
| 20260505214318 | 6 | 315 | 11.3 | 0.0 | 0.00 | 0.00 | 0.00 | 72 | 919.6 |
| 20260505214101 | 6 | 315 | 1.6 | 0.0 | 0.00 | 0.00 | 0.00 | 72 | 919.6 |
| 20260505213953 | 6 | 315 | 14.5 | 0.0 | 0.00 | 0.00 | 0.00 | 71 | 919.7 |
| 20260505213845 | 6 | 315 | 72.4 | 0.0 | 0.00 | 0.00 | 0.00 | 71 | 919.6 |
| 20260505213737 | 6 | 0 | 0.0 | 0.0 | 0.00 | 0.00 | 0.00 | 72 | 919.6 |
| 20260505213628 | 6 | 315 | 24.1 | 0.0 | 0.00 | 0.00 | 0.00 | 72 | 919.7 |
| 20260505213520 | 7 | 0 | 6.4 | 0.0 | 0.00 | 0.00 | 0.00 | 72 | 919.6 |
| 20260505213412 | 7 | 315 | 16.1 | 0.0 | 0.00 | 0.00 | 0.00 | 72 | 919.6 |
| 20260505213155 | 7 | 0 | 0.0 | 0.0 | 0.00 | 0.00 | 0.00 | 72 | 919.6 |
| 20260505213047 | 7 | 0 | 3.2 | 0.0 | 0.00 | 0.00 | 0.00 | 72 | 919.6 |
| 20260505212939 | 7 | 270 | 1.6 | 0.0 | 0.00 | 0.00 | 0.00 | 72 | 919.6 |
| 20260505212830 | 7 | 315 | 0.0 | 0.0 | 0.00 | 0.00 | 0.00 | 72 | 919.6 |
| 20260505212722 | 7 | 0 | 11.3 | 0.0 | 0.00 | 0.00 | 0.00 | 72 | 919.6 |
| 20260505212614 | 7 | 0 | 0.0 | 0.0 | 0.00 | 0.00 | 0.00 | 72 | 919.5 |
| 20260505212506 | 7 | 315 | 0.0 | 0.0 | 0.00 | 0.00 | 0.00 | 72 | 919.5 |
| 20260505212357 | 7 | 315 | 12.9 | 0.0 | 0.00 | 0.00 | 0.00 | 72 | 919.5 |
| 20260505212249 | 7 | 0 | 0.0 | 0.0 | 0.00 | 0.00 | 0.00 | 72 | 919.5 |
| 20260505212141 | 7 | 315 | 0.0 | 0.0 | 0.00 | 0.00 | 0.00 | 72 | 919.5 |
| 20260505212032 | 7 | 315 | 0.0 | 0.0 | 0.00 | 0.00 | 0.00 | 71 | 919.5 |
| 20260505211924 | 7 | 315 | 11.3 | 0.0 | 0.00 | 0.00 | 0.00 | 71 | 919.5 |
| 20260505211816 | 7 | 315 | 37.0 | 0.0 | 0.00 | 0.00 | 0.00 | 71 | 919.5 |
| 20260505211708 | 7 | 0 | 0.0 | 0.0 | 0.00 | 0.00 | 0.00 | 72 | 919.5 |
| 20260505211559 | 7 | 0 | 1.6 | 0.0 | 0.00 | 0.00 | 0.00 | 72 | 919.4 |
| 20260505211451 | 7 | 0 | 14.5 | 0.0 | 0.00 | 0.00 | 0.00 | 71 | 919.5 |
| 20260505211235 | 7 | 315 | 12.9 | 0.0 | 0.00 | 0.00 | 0.00 | 71 | 919.5 |
| 20260505211126 | 7 | 315 | 0.0 | 0.0 | 0.00 | 0.00 | 0.00 | 71 | 919.5 |
| 20260505211018 | 7 | 315 | 0.0 | 0.0 | 0.00 | 0.00 | 0.00 | 72 | 919.5 |
| 20260505210910 | 7 | 315 | 11.3 | 0.0 | 0.00 | 0.00 | 0.00 | 72 | 919.4 |
| 20260505210801 | 7 | 315 | 0.0 | 0.0 | 0.00 | 0.00 | 0.00 | 72 | 919.4 |
| 20260505210653 | 7 | 315 | 14.5 | 0.0 | 0.00 | 0.00 | 0.00 | 72 | 919.4 |
| 20260505210545 | 7 | 0 | 3.2 | 0.0 | 0.00 | 0.00 | 0.00 | 72 | 919.5 |
| 20260505210437 | 7 | 315 | 0.0 | 0.0 | 0.00 | 0.00 | 0.00 | 72 | 919.4 |
| 20260505210328 | 7 | 315 | 0.0 | 0.0 | 0.00 | 0.00 | 0.00 | 72 | 919.4 |
| 20260505210220 | 7 | 315 | 1.6 | 0.0 | 0.00 | 0.00 | 0.00 | 72 | 919.4 |
| 20260505210112 | 7 | 0 | 12.9 | 0.0 | 0.00 | 0.00 | 0.00 | 72 | 919.4 |
| 20260505210004 | 7 | 315 | 9.7 | 0.0 | 0.00 | 0.00 | 0.00 | 72 | 919.4 |
| 20260505205855 | 7 | 315 | 1.6 | 0.0 | 0.00 | 0.00 | 0.00 | 72 | 919.4 |
| 20260505205639 | 7 | 315 | 12.9 | 0.0 | 0.00 | 0.00 | 0.00 | 72 | 919.4 |
| 20260505205530 | 7 | 0 | 3.2 | 0.0 | 0.00 | 0.00 | 0.00 | 72 | 919.4 |
| 20260505205422 | 7 | 0 | 0.0 | 0.0 | 0.00 | 0.00 | 0.00 | 72 | 919.4 |
| 20260505205314 | 7 | 0 | 1.6 | 0.0 | 0.00 | 0.00 | 0.00 | 72 | 919.3 |
| 20260505205206 | 7 | 315 | 20.9 | 0.0 | 0.00 | 0.00 | 0.00 | 72 | 919.3 |
| 20260505205057 | 7 | 315 | 0.0 | 0.0 | 0.00 | 0.00 | 0.00 | 72 | 919.4 |
| 20260505204949 | 7 | 315 | 0.0 | 0.0 | 0.00 | 0.00 | 0.00 | 72 | 919.3 |
| 20260505204841 | 7 | 315 | 0.0 | 0.0 | 0.00 | 0.00 | 0.00 | 72 | 919.3 |
| 20260505204732 | 7 | 315 | 12.9 | 0.0 | 0.00 | 0.00 | 0.00 | 72 | 919.3 |
| 20260505204624 | 7 | 0 | 3.2 | 0.0 | 0.00 | 0.00 | 0.00 | 72 | 919.3 |
| 20260505204516 | 7 | 315 | 20.9 | 0.0 | 0.00 | 0.00 | 0.00 | 72 | 919.3 |
| 20260505204408 | 7 | 0 | 27.4 | 0.0 | 0.00 | 0.00 | 0.00 | 72 | 919.3 |
| 20260505204259 | 7 | 315 | 6.4 | 0.0 | 0.00 | 0.00 | 0.00 | 72 | 919.2 |
| 20260505204151 | 7 | 315 | 11.3 | 0.0 | 0.00 | 0.00 | 0.00 | 72 | 919.2 |
| 20260505204043 | 7 | 315 | 14.5 | 0.0 | 0.00 | 0.00 | 0.00 | 72 | 919.2 |
| 20260505203934 | 7 | 0 | 1.6 | 0.0 | 0.00 | 0.00 | 0.00 | 72 | 919.1 |
| 20260505203826 | 7 | 315 | 3.2 | 0.0 | 0.00 | 0.00 | 0.00 | 72 | 919.1 |
| 20260505203718 | 7 | 270 | 8.0 | 0.0 | 0.00 | 0.00 | 0.00 | 72 | 919.1 |
| 20260505203610 | 7 | 270 | 1.6 | 0.0 | 0.00 | 0.00 | 0.00 | 72 | 919.1 |
| 20260505203501 | 7 | 315 | 25.7 | 0.0 | 0.00 | 0.00 | 0.00 | 72 | 919.1 |
| 20260505203353 | 7 | 315 | 14.5 | 0.0 | 0.00 | 0.00 | 0.00 | 72 | 919.1 |
| 20260505203245 | 7 | 315 | 14.5 | 0.0 | 0.00 | 0.00 | 0.00 | 72 | 919.1 |
| 20260505203137 | 7 | 0 | 0.0 | 0.0 | 0.00 | 0.00 | 0.00 | 72 | 919.2 |
| 20260505202920 | 7 | 270 | 1.6 | 0.0 | 0.00 | 0.00 | 0.00 | 71 | 919.1 |
| 20260505202812 | 7 | 270 | 0.0 | 0.0 | 0.00 | 0.00 | 0.00 | 71 | 919.0 |
| 20260505202703 | 7 | 0 | 0.0 | 0.0 | 0.00 | 0.00 | 0.00 | 71 | 919.0 |
| 20260505202555 | 7 | 0 | 0.0 | 0.0 | 0.00 | 0.00 | 0.00 | 71 | 919.0 |
| 20260505202447 | 7 | 315 | 0.0 | 0.0 | 0.00 | 0.00 | 0.00 | 71 | 919.0 |
| 20260505202339 | 7 | 315 | 0.0 | 0.0 | 0.00 | 0.00 | 0.00 | 71 | 919.0 |
| 20260505202230 | 7 | 315 | 4.8 | 0.0 | 0.00 | 0.00 | 0.00 | 71 | 918.9 |
| 20260505202122 | 7 | 315 | 51.5 | 0.0 | 0.00 | 0.00 | 0.00 | 71 | 919.0 |
| 20260505202014 | 7 | 315 | 3.2 | 0.0 | 0.00 | 0.00 | 0.00 | 72 | 919.0 |
| 20260505201906 | 8 | 315 | 1.6 | 0.0 | 0.00 | 0.00 | 0.00 | 72 | 919.0 |
| 20260505201757 | 8 | 315 | 35.4 | 0.0 | 0.00 | 0.00 | 0.00 | 72 | 919.0 |
| 20260505201649 | 8 | 315 | 1.6 | 0.0 | 0.00 | 0.00 | 0.00 | 72 | 919.0 |
| 20260505201541 | 8 | 0 | 0.0 | 0.0 | 0.00 | 0.00 | 0.00 | 72 | 919.0 |
| 20260505201432 | 8 | 315 | 1.6 | 0.0 | 0.00 | 0.00 | 0.00 | 72 | 919.0 |
| 20260505201324 | 8 | 315 | 14.5 | 0.0 | 0.00 | 0.00 | 0.00 | 72 | 919.0 |
| 20260505201216 | 8 | 0 | 22.5 | 0.0 | 0.00 | 0.00 | 0.00 | 72 | 918.9 |
| 20260505201108 | 8 | 315 | 1.6 | 0.0 | 0.00 | 0.00 | 0.00 | 72 | 918.9 |
| 20260505200959 | 8 | 315 | 8.0 | 0.0 | 0.00 | 0.00 | 0.00 | 72 | 918.9 |
| 20260505200851 | 8 | 315 | 0.0 | 0.0 | 0.00 | 0.00 | 0.00 | 72 | 918.9 |
| 20260505200743 | 8 | 315 | 0.0 | 0.0 | 0.00 | 0.00 | 0.00 | 72 | 918.9 |
| 20260505200634 | 8 | 315 | 0.0 | 0.0 | 0.00 | 0.00 | 0.00 | 72 | 918.9 |
| 20260505200526 | 8 | 315 | 3.2 | 0.0 | 0.00 | 0.00 | 0.00 | 72 | 918.9 |
| 20260505200418 | 8 | 315 | 4.8 | 0.0 | 0.00 | 0.00 | 0.00 | 71 | 918.9 |
| 20260505200310 | 8 | 315 | 4.8 | 0.0 | 0.00 | 0.00 | 0.00 | 72 | 918.9 |
| 20260505200201 | 8 | 0 | 22.5 | 0.0 | 0.00 | 0.00 | 0.00 | 72 | 918.9 |
| 20260505200053 | 8 | 0 | 0.0 | 0.0 | 0.00 | 0.00 | 0.00 | 72 | 918.9 |
| 20260505195945 | 8 | 315 | 0.0 | 0.0 | 0.00 | 0.00 | 0.00 | 72 | 918.9 |
| 20260505195837 | 8 | 0 | 0.0 | 0.0 | 0.00 | 0.00 | 0.00 | 71 | 918.9 |
| 20260505195728 | 8 | 0 | 17.7 | 0.0 | 0.00 | 0.00 | 0.00 | 71 | 918.9 |
| 20260505195620 | 8 | 0 | 1.6 | 0.0 | 0.00 | 0.00 | 0.00 | 71 | 918.9 |
| 20260505195512 | 8 | 0 | 1.6 | 0.0 | 0.00 | 0.00 | 0.00 | 71 | 918.8 |
| 20260505195403 | 8 | 270 | 4.8 | 0.0 | 0.00 | 0.00 | 0.00 | 71 | 918.8 |
| 20260505195255 | 8 | 315 | 3.2 | 0.0 | 0.00 | 0.00 | 0.00 | 71 | 918.8 |
| 20260505195147 | 8 | 315 | 0.0 | 0.0 | 0.00 | 0.00 | 0.00 | 71 | 918.7 |
| 20260505195039 | 8 | 315 | 0.0 | 0.0 | 0.00 | 0.00 | 0.00 | 71 | 918.7 |
| 20260505194930 | 8 | 315 | 0.0 | 0.0 | 0.00 | 0.00 | 0.00 | 71 | 918.7 |
| 20260505194822 | 8 | 315 | 11.3 | 0.0 | 0.00 | 0.00 | 0.00 | 71 | 918.7 |
| 20260505194714 | 8 | 315 | 0.0 | 0.0 | 0.00 | 0.00 | 0.00 | 71 | 918.7 |
| 20260505194606 | 8 | 315 | 1.6 | 0.0 | 0.00 | 0.00 | 0.00 | 71 | 918.7 |
| 20260505194457 | 8 | 0 | 0.0 | 0.0 | 0.00 | 0.00 | 0.00 | 71 | 918.7 |
| 20260505194349 | 8 | 315 | 0.0 | 0.0 | 0.00 | 0.00 | 0.00 | 71 | 918.7 |
| 20260505194241 | 8 | 315 | 12.9 | 0.0 | 0.00 | 0.00 | 0.00 | 71 | 918.7 |
| 20260505194024 | 8 | 315 | 14.5 | 0.0 | 0.00 | 0.00 | 0.00 | 71 | 918.6 |
| 20260505193916 | 8 | 315 | 12.9 | 0.0 | 0.00 | 0.00 | 0.00 | 71 | 918.6 |
| 20260505193808 | 8 | 315 | 17.7 | 0.0 | 0.00 | 0.00 | 0.00 | 71 | 918.5 |
| 20260505193659 | 9 | 315 | 0.0 | 0.0 | 0.00 | 0.00 | 0.00 | 71 | 918.5 |
| 20260505193551 | 9 | 315 | 12.9 | 0.0 | 0.00 | 0.00 | 0.00 | 71 | 918.5 |
| 20260505193443 | 9 | 0 | 1.6 | 0.0 | 0.00 | 0.00 | 0.00 | 71 | 918.4 |
| 20260505193334 | 9 | 315 | 20.9 | 0.0 | 0.00 | 0.00 | 0.00 | 71 | 918.4 |
| 20260505193226 | 9 | 0 | 4.8 | 0.0 | 0.00 | 0.00 | 0.00 | 71 | 918.4 |
| 20260505193118 | 9 | 270 | 4.8 | 0.0 | 0.00 | 0.00 | 0.00 | 71 | 918.4 |
| 20260505193010 | 9 | 315 | 0.0 | 0.0 | 0.00 | 0.00 | 0.00 | 71 | 918.4 |
| 20260505192901 | 9 | 315 | 0.0 | 0.0 | 0.00 | 0.00 | 0.00 | 71 | 918.4 |
| 20260505192753 | 9 | 315 | 0.0 | 0.0 | 0.00 | 0.00 | 0.00 | 71 | 918.4 |
| 20260505192645 | 9 | 315 | 1.6 | 0.0 | 0.00 | 0.00 | 0.00 | 71 | 918.3 |
| 20260505192537 | 9 | 0 | 1.6 | 0.0 | 0.00 | 0.00 | 0.00 | 71 | 918.3 |
| 20260505192428 | 9 | 0 | 1.6 | 0.0 | 0.00 | 0.00 | 0.00 | 71 | 918.3 |
| 20260505192320 | 9 | 315 | 1.6 | 0.0 | 0.00 | 0.00 | 0.00 | 70 | 918.4 |
| 20260505192212 | 9 | 315 | 1.6 | 0.0 | 0.00 | 0.00 | 0.00 | 70 | 918.4 |
| 20260505192103 | 10 | 315 | 0.0 | 0.0 | 0.00 | 0.00 | 0.00 | 70 | 918.3 |
| 20260505191955 | 10 | 45 | 0.0 | 0.0 | 0.00 | 0.00 | 0.00 | 70 | 918.3 |
| 20260505191847 | 10 | 315 | 0.0 | 0.0 | 0.00 | 0.00 | 0.00 | 70 | 918.3 |
| 20260505191739 | 10 | 315 | 0.0 | 0.0 | 0.00 | 0.00 | 0.00 | 70 | 918.3 |
| 20260505191630 | 10 | 315 | 33.8 | 0.0 | 0.00 | 0.00 | 0.00 | 70 | 918.3 |
| 20260505191522 | 10 | 0 | 25.7 | 0.0 | 0.00 | 0.00 | 0.00 | 70 | 918.2 |
| 20260505191414 | 10 | 0 | 0.0 | 0.0 | 0.00 | 0.00 | 0.00 | 70 | 918.2 |
| 20260505191305 | 10 | 0 | 0.0 | 0.0 | 0.00 | 0.00 | 0.00 | 70 | 918.2 |
| 20260505191157 | 10 | 315 | 0.0 | 0.0 | 0.00 | 0.00 | 0.00 | 70 | 918.2 |
| 20260505191050 | 10 | 315 | 9.7 | 0.0 | 0.00 | 0.00 | 0.00 | 70 | 918.2 |
| 20260505190941 | 10 | 315 | 0.0 | 0.0 | 0.00 | 0.00 | 0.00 | 70 | 918.1 |
| 20260505190832 | 10 | 315 | 0.0 | 0.0 | 0.00 | 0.00 | 0.00 | 70 | 918.1 |
| 20260505190724 | 10 | 315 | 0.0 | 0.0 | 0.00 | 0.00 | 0.00 | 71 | 918.1 |
| 20260505190616 | 11 | 315 | 1.6 | 0.0 | 0.00 | 0.00 | 0.00 | 71 | 918.1 |
| 20260505190508 | 11 | 315 | 12.9 | 0.0 | 0.00 | 0.00 | 0.00 | 71 | 918.1 |
| 20260505190359 | 11 | 315 | 1.6 | 0.0 | 0.00 | 0.00 | 0.00 | 71 | 918.1 |
| 20260505190251 | 11 | 0 | 3.2 | 0.0 | 0.00 | 0.00 | 0.00 | 71 | 918.1 |
| 20260505190143 | 11 | 315 | 0.0 | 0.0 | 0.00 | 0.00 | 0.00 | 71 | 918.1 |
| 20260505190034 | 11 | 0 | 0.0 | 0.0 | 0.00 | 0.00 | 0.00 | 71 | 918.1 |
| 20260505185926 | 11 | 0 | 0.0 | 0.0 | 0.00 | 0.00 | 0.00 | 71 | 918.0 |
| 20260505185818 | 11 | 315 | 1.6 | 0.0 | 0.00 | 0.00 | 0.00 | 72 | 918.0 |
| 20260505185710 | 11 | 270 | 1.6 | 0.0 | 0.00 | 0.00 | 0.00 | 72 | 918.0 |
| 20260505185601 | 11 | 315 | 12.9 | 0.0 | 0.00 | 0.00 | 0.00 | 72 | 918.0 |
| 20260505185453 | 11 | 225 | 9.7 | 0.0 | 0.00 | 0.00 | 0.00 | 71 | 918.0 |
| 20260505185345 | 11 | 45 | 9.7 | 0.0 | 0.00 | 0.00 | 0.00 | 71 | 917.9 |
| 20260505185237 | 11 | 180 | 14.5 | 0.0 | 0.00 | 0.00 | 0.00 | 71 | 917.9 |
| 20260505185128 | 11 | 270 | 3.2 | 0.0 | 0.00 | 0.00 | 0.00 | 71 | 917.9 |
| 20260505185020 | 11 | 270 | 0.0 | 0.0 | 0.00 | 0.00 | 0.00 | 71 | 917.9 |
| 20260505184912 | 11 | 315 | 0.0 | 0.0 | 0.00 | 0.00 | 0.00 | 71 | 917.9 |
| 20260505184803 | 12 | 315 | 0.0 | 0.0 | 0.00 | 0.00 | 0.00 | 71 | 917.9 |
| 20260505184655 | 12 | 225 | 0.0 | 0.0 | 0.00 | 0.00 | 0.00 | 71 | 917.9 |
| 20260505184547 | 12 | 0 | 0.0 | 0.0 | 0.00 | 0.00 | 0.00 | 71 | 917.9 |
| 20260505184439 | 12 | 315 | 0.0 | 0.0 | 0.00 | 0.00 | 0.00 | 71 | 917.9 |
| 20260505184330 | 12 | 45 | 20.9 | 0.0 | 0.00 | 0.00 | 0.00 | 71 | 917.9 |
| 20260505184222 | 12 | 225 | 0.0 | 0.0 | 0.00 | 0.00 | 0.00 | 71 | 917.9 |
| 20260505184114 | 12 | 0 | 0.0 | 0.0 | 0.00 | 0.00 | 0.00 | 71 | 917.9 |
| 20260505184005 | 12 | 0 | 4.8 | 0.0 | 0.00 | 0.00 | 0.00 | 71 | 917.9 |
| 20260505183857 | 12 | 225 | 0.0 | 0.0 | 0.00 | 0.00 | 0.00 | 71 | 917.8 |
| 20260505183749 | 12 | 315 | 0.0 | 0.0 | 0.00 | 0.00 | 0.00 | 71 | 917.8 |
| 20260505183641 | 12 | 45 | 1.6 | 0.0 | 0.00 | 0.00 | 0.00 | 71 | 917.8 |
| 20260505183532 | 12 | 270 | 0.0 | 0.0 | 0.00 | 0.00 | 0.00 | 71 | 917.7 |
| 20260505183424 | 13 | 0 | 1.6 | 0.0 | 0.00 | 0.00 | 0.00 | 71 | 917.7 |
| 20260505183316 | 13 | 45 | 19.3 | 0.0 | 0.00 | 0.00 | 0.00 | 71 | 917.6 |
| 20260505183208 | 13 | 270 | 0.0 | 0.0 | 0.00 | 0.00 | 0.00 | 71 | 917.6 |
| 20260505182951 | 13 | 315 | 0.0 | 0.0 | 0.00 | 0.00 | 0.00 | 72 | 917.6 |
| 20260505182843 | 13 | 0 | 0.0 | 0.0 | 0.00 | 0.00 | 0.00 | 72 | 917.7 |
| 20260505182734 | 13 | 180 | 19.3 | 0.0 | 0.00 | 0.00 | 0.00 | 72 | 917.6 |
| 20260505182626 | 13 | 135 | 16.1 | 0.0 | 0.00 | 0.00 | 0.00 | 71 | 917.6 |
| 20260505182517 | 13 | 180 | 14.5 | 0.0 | 0.00 | 0.00 | 0.00 | 71 | 917.6 |
| 20260505182409 | 13 | 225 | 1.6 | 0.0 | 0.00 | 0.00 | 0.00 | 71 | 917.6 |
| 20260505182301 | 13 | 315 | 1.6 | 0.0 | 0.00 | 0.00 | 0.00 | 70 | 917.6 |
| 20260505182152 | 13 | 270 | 0.0 | 0.0 | 0.00 | 0.00 | 0.00 | 71 | 917.6 |
| 20260505182043 | 14 | 315 | 1.6 | 0.0 | 0.00 | 0.00 | 0.00 | 71 | 917.6 |
| 20260505181935 | 14 | 270 | 11.3 | 0.0 | 0.00 | 0.00 | 0.00 | 71 | 917.5 |
| 20260505181827 | 14 | 180 | 1.6 | 0.0 | 0.00 | 0.00 | 0.00 | 71 | 917.5 |
| 20260505181718 | 14 | 225 | 11.3 | 0.0 | 0.00 | 0.00 | 0.00 | 71 | 917.5 |
| 20260505181610 | 15 | 135 | 0.0 | 0.0 | 0.00 | 0.00 | 0.00 | 71 | 917.5 |
| 20260505181501 | 15 | 90 | 1.6 | 0.0 | 0.00 | 0.00 | 0.00 | 71 | 917.5 |
| 20260505181353 | 15 | 135 | 12.9 | 0.0 | 0.00 | 0.00 | 0.00 | 71 | 917.5 |
| 20260505181244 | 15 | 225 | 4.8 | 0.0 | 0.00 | 0.00 | 0.00 | 71 | 917.5 |
| 20260505181136 | 15 | 135 | 24.1 | 0.0 | 0.00 | 0.00 | 0.00 | 71 | 917.5 |
| 20260505181027 | 15 | 135 | 6.4 | 0.0 | 0.00 | 0.00 | 0.00 | 71 | 917.4 |
| 20260505180919 | 15 | 135 | 11.3 | 0.0 | 0.00 | 0.00 | 0.00 | 72 | 917.4 |
| 20260505180811 | 15 | 90 | 27.4 | 0.0 | 0.00 | 0.00 | 0.00 | 72 | 917.4 |
| 20260505180702 | 16 | 180 | 19.3 | 0.0 | 0.00 | 0.00 | 0.00 | 72 | 917.4 |
| 20260505180554 | 16 | 225 | 12.9 | 0.0 | 0.00 | 0.00 | 0.00 | 72 | 917.3 |
| 20260505180445 | 16 | 225 | 27.4 | 0.0 | 0.00 | 0.00 | 0.00 | 72 | 917.3 |
| 20260505180337 | 16 | 135 | 11.3 | 0.0 | 0.00 | 0.00 | 0.00 | 72 | 917.4 |
| 20260505180229 | 16 | 135 | 29.0 | 0.0 | 0.00 | 0.00 | 0.00 | 72 | 917.3 |
| 20260505180120 | 16 | 180 | 64.4 | 0.0 | 0.00 | 0.00 | 0.00 | 72 | 917.3 |
| 20260505180011 | 16 | 180 | 16.1 | 0.0 | 0.00 | 0.00 | 0.00 | 73 | 917.3 |
| 20260505175903 | 16 | 135 | 57.9 | 0.0 | 0.00 | 0.00 | 0.00 | 73 | 917.3 |
| 20260505175755 | 16 | 180 | 25.7 | 0.0 | 0.00 | 0.00 | 0.00 | 73 | 917.2 |
| 20260505175646 | 16 | 180 | 32.2 | 0.0 | 0.00 | 0.00 | 0.00 | 73 | 917.2 |
| 20260505175538 | 16 | 225 | 1.6 | 0.0 | 0.00 | 0.00 | 0.00 | 73 | 917.3 |
| 20260505175429 | 16 | 270 | 16.1 | 0.0 | 0.00 | 0.00 | 0.00 | 73 | 917.2 |
| 20260505175321 | 16 | 180 | 51.5 | 0.0 | 0.00 | 0.00 | 0.00 | 73 | 917.2 |
| 20260505175212 | 16 | 180 | 24.1 | 0.0 | 0.00 | 0.00 | 0.00 | 73 | 917.2 |
| 20260505175104 | 16 | 90 | 80.5 | 0.0 | 0.00 | 0.00 | 0.00 | 73 | 917.2 |
| 20260505174956 | 16 | 180 | 27.4 | 0.0 | 0.00 | 0.00 | 0.00 | 73 | 917.2 |
| 20260505174847 | 16 | 135 | 77.2 | 0.0 | 0.00 | 0.00 | 0.00 | 73 | 917.2 |
| 20260505174739 | 16 | 90 | 32.2 | 0.0 | 0.00 | 0.00 | 0.00 | 73 | 917.2 |
| 20260505174630 | 17 | 0 | 27.4 | 0.0 | 0.00 | 0.00 | 0.00 | 73 | 917.2 |
| 20260505174522 | 17 | 90 | 6.4 | 0.0 | 0.00 | 0.00 | 0.00 | 73 | 917.2 |
| 20260505174413 | 17 | 90 | 41.8 | 0.0 | 0.00 | 0.00 | 0.00 | 73 | 917.3 |
| 20260505174305 | 17 | 180 | 77.2 | 0.0 | 0.00 | 0.00 | 0.00 | 73 | 917.3 |
| 20260505174156 | 17 | 90 | 61.2 | 0.0 | 0.00 | 0.00 | 0.00 | 72 | 917.3 |
| 20260505174048 | 17 | 180 | 37.0 | 0.0 | 0.00 | 0.00 | 0.00 | 72 | 917.2 |
| 20260505173940 | 17 | 180 | 56.3 | 0.0 | 0.00 | 0.00 | 0.00 | 72 | 917.2 |
| 20260505173831 | 17 | 225 | 56.3 | 0.0 | 0.00 | 0.00 | 0.00 | 72 | 917.3 |
| 20260505173723 | 17 | 180 | 24.1 | 0.0 | 0.00 | 0.00 | 0.00 | 72 | 917.2 |
| 20260505173614 | 17 | 180 | 38.6 | 0.0 | 0.00 | 0.00 | 0.00 | 72 | 917.2 |
| 20260505173506 | 17 | 180 | 33.8 | 0.0 | 0.00 | 0.00 | 0.00 | 72 | 917.1 |
| 20260505173357 | 17 | 180 | 8.0 | 0.0 | 0.00 | 0.00 | 0.00 | 72 | 917.2 |
| 20260505173249 | 17 | 0 | 14.5 | 0.0 | 0.00 | 0.00 | 0.00 | 72 | 917.2 |
| 20260505173141 | 17 | 315 | 32.2 | 0.0 | 0.00 | 0.00 | 0.00 | 72 | 917.2 |
| 20260505173032 | 17 | 135 | 67.6 | 0.0 | 0.00 | 0.00 | 0.00 | 72 | 917.3 |
| 20260505172924 | 17 | 180 | 59.5 | 0.0 | 0.00 | 0.00 | 0.00 | 72 | 917.2 |
| 20260505172815 | 17 | 225 | 11.3 | 0.0 | 0.00 | 0.00 | 0.00 | 71 | 917.1 |
| 20260505172707 | 17 | 180 | 11.3 | 0.0 | 0.00 | 0.00 | 0.00 | 71 | 917.2 |
| 20260505172558 | 17 | 225 | 33.8 | 0.0 | 0.00 | 0.00 | 0.00 | 71 | 917.2 |
| 20260505172450 | 17 | 180 | 37.0 | 0.0 | 0.00 | 0.00 | 0.00 | 71 | 917.1 |
| 20260505172341 | 17 | 180 | 35.4 | 0.0 | 0.00 | 0.00 | 0.00 | 71 | 917.2 |
| 20260505172233 | 17 | 180 | 19.3 | 0.0 | 0.00 | 0.00 | 0.00 | 71 | 917.2 |
| 20260505172125 | 17 | 135 | 30.6 | 0.0 | 0.00 | 0.00 | 0.00 | 71 | 917.2 |
| 20260505172016 | 18 | 180 | 54.7 | 0.0 | 0.00 | 0.00 | 0.00 | 71 | 917.2 |
| 20260505171908 | 18 | 225 | 53.1 | 0.0 | 0.00 | 0.00 | 0.00 | 71 | 917.2 |
| 20260505171759 | 18 | 90 | 35.4 | 0.0 | 0.00 | 0.00 | 0.00 | 71 | 917.2 |
| 20260505171651 | 18 | 225 | 75.6 | 0.0 | 0.00 | 0.00 | 0.00 | 71 | 917.2 |
| 20260505171542 | 18 | 180 | 62.8 | 0.0 | 0.00 | 0.00 | 0.00 | 71 | 917.2 |
| 20260505171434 | 18 | 90 | 77.2 | 0.0 | 0.00 | 0.00 | 0.00 | 70 | 917.2 |
| 20260505171325 | 18 | 180 | 24.1 | 0.0 | 0.00 | 0.00 | 0.00 | 70 | 917.2 |
| 20260505171217 | 18 | 180 | 82.1 | 0.0 | 0.00 | 0.00 | 0.00 | 70 | 917.2 |
| 20260505171109 | 18 | 180 | 59.5 | 0.0 | 0.00 | 0.00 | 0.00 | 70 | 917.2 |
| 20260505171000 | 18 | 90 | 64.4 | 0.0 | 0.00 | 0.00 | 0.00 | 70 | 917.2 |
| 20260505170852 | 18 | 135 | 70.8 | 0.0 | 0.00 | 0.00 | 0.00 | 69 | 917.2 |
| 20260505170743 | 18 | 180 | 86.9 | 0.0 | 0.00 | 0.00 | 0.00 | 69 | 917.1 |
| 20260505170635 | 18 | 180 | 40.2 | 0.0 | 0.00 | 0.00 | 0.00 | 69 | 917.1 |
| 20260505170526 | 19 | 225 | 24.1 | 0.0 | 0.00 | 0.00 | 0.00 | 68 | 917.1 |
| 20260505170418 | 19 | 225 | 24.1 | 0.0 | 0.00 | 0.00 | 0.00 | 68 | 917.1 |
| 20260505170309 | 19 | 135 | 43.5 | 0.0 | 0.00 | 0.00 | 0.00 | 68 | 917.1 |
| 20260505170201 | 20 | 0 | 98.2 | 0.0 | 0.00 | 0.00 | 0.00 | 67 | 917.0 |
| 20260505170053 | 20 | 225 | 64.4 | 0.0 | 0.00 | 0.00 | 0.00 | 66 | 917.1 |
| 20260505165944 | 20 | 225 | 41.8 | 0.0 | 0.00 | 0.00 | 0.00 | 66 | 917.1 |
| 20260505165836 | 20 | 225 | 66.0 | 0.0 | 0.00 | 0.00 | 0.00 | 65 | 917.0 |
| 20260505165727 | 21 | 225 | 33.8 | 0.0 | 0.00 | 0.00 | 0.00 | 65 | 917.0 |
| 20260505165619 | 21 | 180 | 48.3 | 0.0 | 0.00 | 0.00 | 0.00 | 64 | 917.0 |
| 20260505165510 | 21 | 225 | 27.4 | 0.0 | 0.00 | 0.00 | 0.00 | 63 | 917.0 |
| 20260505165402 | 22 | 135 | 30.6 | 0.0 | 0.00 | 0.00 | 0.00 | 63 | 917.0 |
| 20260505165253 | 22 | 225 | 30.6 | 0.0 | 0.00 | 0.00 | 0.00 | 62 | 917.0 |
| 20260505165145 | 23 | 180 | 64.4 | 0.0 | 0.00 | 0.00 | 0.00 | 61 | 917.0 |
| 20260505165037 | 23 | 180 | 69.2 | 0.0 | 0.00 | 0.00 | 0.00 | 60 | 917.0 |
| 20260505164928 | 24 | 180 | 112.7 | 0.0 | 0.00 | 0.00 | 0.00 | 59 | 916.9 |
| 20260505164820 | 25 | 225 | 46.7 | 0.0 | 0.00 | 0.00 | 0.00 | 58 | 917.0 |
| 20260505164711 | 26 | 225 | 22.5 | 0.0 | 0.00 | 0.00 | 0.00 | 57 | 916.9 |
| 20260505164603 | 27 | 225 | 25.7 | 0.0 | 0.00 | 0.00 | 0.00 | 56 | 916.9 |
| 20260505164454 | 28 | 90 | 24.1 | 0.0 | 0.00 | 0.00 | 0.00 | 54 | 916.9 |
| 20260505164346 | 29 | 90 | 49.9 | 0.0 | 0.00 | 0.00 | 0.00 | 53 | 916.8 |
| 20260505164237 | 31 | 225 | 78.9 | 0.0 | 0.00 | 0.00 | 0.00 | 51 | 916.8 |
| 20260505164129 | 32 | 225 | 56.3 | 0.0 | 0.00 | 0.00 | 0.00 | 50 | 916.9 |
| 20260505164021 | 35 | 225 | 37.0 | 0.0 | 0.00 | 0.00 | 0.00 | 48 | 916.8 |
| 20260505163912 | -12 | 45 | 41.8 | 0.0 | 0.00 | 0.00 | 0.00 | 46 | 916.8 |
| 20260505163804 | 38 | 225 | 56.3 | 0.0 | 0.00 | 0.00 | 0.00 | 45 | 916.8 |
| 20260505163655 | 38 | 180 | 56.3 | 0.0 | 0.00 | 0.00 | 0.00 | 45 | 916.8 |
| 20260505163547 | 38 | 180 | 51.5 | 0.0 | 0.00 | 0.00 | 0.00 | 46 | 916.7 |
| 20260505163438 | 38 | 90 | 14.5 | 0.0 | 0.00 | 0.00 | 0.00 | 46 | 916.7 |
| 20260505163330 | 38 | 180 | 96.6 | 0.0 | 0.00 | 0.00 | 0.00 | 45 | 916.7 |
| 20260505163222 | 38 | 90 | 72.4 | 0.0 | 0.00 | 0.00 | 0.00 | 45 | 916.7 |
| 20260505163113 | 38 | 180 | 49.9 | 0.0 | 0.00 | 0.00 | 0.00 | 46 | 916.7 |
| 20260505163005 | 38 | 180 | 0.0 | 0.0 | 0.00 | 0.00 | 0.00 | 47 | 916.8 |
| 20260505162856 | 38 | 0 | 41.8 | 0.0 | 0.00 | 0.00 | 0.00 | 47 | 916.8 |
| 20260505162748 | 38 | 225 | 16.1 | 0.0 | 0.00 | 0.00 | 0.00 | 46 | 916.8 |
| 20260505162639 | 38 | 45 | 51.5 | 0.0 | 0.00 | 0.00 | 0.00 | 46 | 916.9 |
| 20260505162531 | 38 | 180 | 72.4 | 0.0 | 0.00 | 0.00 | 0.00 | 47 | 916.8 |
| 20260505162422 | 37 | 180 | 41.8 | 0.0 | 0.00 | 0.00 | 0.00 | 47 | 916.8 |
| 20260505162314 | -12 | 225 | 38.6 | 0.0 | 0.00 | 0.00 | 0.00 | 47 | 916.9 |
| 20260505162206 | 37 | 180 | 41.8 | 0.0 | 0.00 | 0.00 | 0.00 | 48 | 916.9 |
| 20260505162057 | 37 | 180 | 37.0 | 0.0 | 0.00 | 0.00 | 0.00 | 48 | 916.9 |
| 20260505161949 | 36 | 90 | 49.9 | 0.0 | 0.00 | 0.00 | 0.00 | 49 | 916.9 |
| 20260505161840 | 36 | 180 | 61.2 | 0.0 | 0.00 | 0.00 | 0.00 | 50 | 917.0 |
| 20260505161732 | 35 | 225 | 24.1 | 0.0 | 0.00 | 0.00 | 0.00 | 51 | 917.0 |
| 20260505161623 | 34 | 180 | 29.0 | 0.0 | 0.00 | 0.00 | 0.00 | 52 | 917.0 |
| 20260505161515 | 32 | 225 | 57.9 | 0.0 | 0.00 | 0.00 | 0.00 | 54 | 917.1 |
| 20260505161407 | 31 | 180 | 69.2 | 0.0 | 0.00 | 0.00 | 0.00 | 56 | 917.2 |
| 20260505161258 | 28 | 180 | 43.5 | 0.0 | 0.00 | 0.00 | 0.00 | 58 | 917.3 |
| 20260505161150 | 27 | 180 | 41.8 | 0.0 | 0.00 | 0.00 | 0.00 | 60 | 917.3 |
| 20260505161041 | 27 | 225 | 64.4 | 0.0 | 0.00 | 0.00 | 0.00 | 59 | 917.3 |
| 20260505160933 | 28 | 180 | 54.7 | 0.0 | 0.00 | 0.00 | 0.00 | 59 | 917.4 |
| 20260505160824 | 29 | 180 | 40.2 | 0.0 | 0.00 | 0.00 | 0.00 | 58 | 917.4 |
| 20260505160716 | 30 | 225 | 43.5 | 0.0 | 0.00 | 0.00 | 0.00 | 57 | 917.3 |
| 20260505160607 | 30 | 225 | 43.5 | 0.0 | 0.00 | 0.00 | 0.00 | 57 | 917.4 |
| 20260505160459 | 30 | 180 | 40.2 | 0.0 | 0.00 | 0.00 | 0.00 | 57 | 917.4 |
| 20260505160351 | 31 | 180 | 43.5 | 0.0 | 0.00 | 0.00 | 0.00 | 57 | 917.4 |
| 20260505160242 | 32 | 225 | 32.2 | 0.0 | 0.00 | 0.00 | 0.00 | 57 | 917.4 |
| 20260505160134 | 33 | 225 | 38.6 | 0.0 | 0.00 | 0.00 | 0.00 | 56 | 917.4 |
| 20260505153303 | 22 | 225 | 22.5 | 0.0 | 0.00 | 0.00 | 0.00 | 68 | 917.9 |
| 20260505153154 | 22 | 225 | 38.6 | 0.0 | 0.00 | 0.00 | 0.00 | 68 | 917.8 |
| 20260505153046 | 23 | 180 | 19.3 | 0.0 | 0.00 | 0.00 | 0.00 | 68 | 917.8 |
| 20260505152937 | 23 | 180 | 0.0 | 0.0 | 0.00 | 0.00 | 0.00 | 68 | 917.8 |
| 20260505152829 | 23 | 315 | 4.8 | 0.0 | 0.00 | 0.00 | 0.00 | 68 | 917.7 |
| 20260505152721 | 23 | 270 | 0.0 | 0.0 | 0.00 | 0.00 | 0.00 | 67 | 917.8 |
| 20260505152612 | 23 | 135 | 11.3 | 0.0 | 0.00 | 0.00 | 0.00 | 67 | 917.8 |
| 20260505152504 | 23 | 180 | 78.9 | 0.0 | 0.00 | 0.00 | 0.00 | 66 | 917.8 |
| 20260505152355 | 23 | 225 | 32.2 | 0.0 | 0.00 | 0.00 | 0.00 | 66 | 917.9 |
| 20260505152247 | 24 | 135 | 40.2 | 0.0 | 0.00 | 0.00 | 0.00 | 66 | 917.9 |
| 20260505152138 | 24 | 180 | 48.3 | 0.0 | 0.00 | 0.00 | 0.00 | 66 | 917.8 |
| 20260505152030 | 25 | 180 | 49.9 | 0.0 | 0.00 | 0.00 | 0.00 | 66 | 917.8 |
| 20260505151921 | 25 | 225 | 30.6 | 0.0 | 0.00 | 0.00 | 0.00 | 66 | 917.7 |
| 20260505151813 | 25 | 180 | 27.4 | 0.0 | 0.00 | 0.00 | 0.00 | 66 | 917.8 |
| 20260505151705 | 26 | 180 | 32.2 | 0.0 | 0.00 | 0.00 | 0.00 | 67 | 917.8 |
| 20260505151556 | 25 | 135 | 33.8 | 0.0 | 0.00 | 0.00 | 0.00 | 67 | 917.8 |
| 20260505151448 | 23 | 180 | 48.3 | 0.0 | 0.00 | 0.00 | 0.00 | 68 | 917.9 |
| 20260505151339 | 22 | 180 | 38.6 | 0.0 | 0.00 | 0.00 | 0.00 | 68 | 917.9 |
| 20260505151231 | 21 | 90 | 45.1 | 0.0 | 0.00 | 0.00 | 0.00 | 68 | 917.9 |
| 20260505151122 | 21 | 225 | 41.8 | 0.0 | 0.00 | 0.00 | 0.00 | 69 | 917.9 |
| 20260505151014 | 21 | 180 | 40.2 | 0.0 | 0.00 | 0.00 | 0.00 | 68 | 917.8 |
| 20260505150905 | 21 | 135 | 64.4 | 0.0 | 0.00 | 0.00 | 0.00 | 68 | 917.8 |
| 20260505150757 | 21 | 180 | 27.4 | 0.0 | 0.00 | 0.00 | 0.00 | 68 | 917.9 |
| 20260505150649 | 21 | 225 | 40.2 | 0.0 | 0.00 | 0.00 | 0.00 | 68 | 917.9 |
| 20260505150540 | 21 | 90 | 32.2 | 0.0 | 0.00 | 0.00 | 0.00 | 68 | 917.8 |
| 20260505150432 | 21 | 135 | 41.8 | 0.0 | 0.00 | 0.00 | 0.00 | 68 | 917.8 |
| 20260505150323 | 21 | 180 | 45.1 | 0.0 | 0.00 | 0.00 | 0.00 | 68 | 917.8 |
| 20260505150215 | 21 | 225 | 22.5 | 0.0 | 0.00 | 0.00 | 0.00 | 69 | 917.8 |
| 20260505150107 | 21 | 180 | 78.9 | 0.0 | 0.00 | 0.00 | 0.00 | 69 | 917.9 |
| 20260505140621 | 23 | 225 | 41.8 | 0.0 | 0.00 | 0.00 | 0.00 | 68 | 917.4 |
| 20260505140513 | 23 | 90 | 48.3 | 0.0 | 0.00 | 0.00 | 0.00 | 68 | 917.4 |
| 20260505140404 | 23 | 225 | 35.4 | 0.0 | 0.00 | 0.00 | 0.00 | 68 | 917.4 |
| 20260505140256 | 23 | 180 | 77.2 | 0.0 | 0.00 | 0.00 | 0.00 | 68 | 917.4 |
| 20260505140147 | 23 | 90 | 96.6 | 0.0 | 0.00 | 0.00 | 0.00 | 68 | 917.4 |
| 20260505130228 | 31 | 180 | 120.7 | 0.0 | 0.00 | 0.00 | 0.00 | 57 | 917.4 |
| 20260505130120 | 31 | 90 | 59.5 | 0.0 | 0.00 | 0.00 | 0.00 | 58 | 917.3 |
| 20260505124956 | 26 | 180 | 93.3 | 0.0 | 0.00 | 0.00 | 0.00 | 64 | 917.4 |
| 20260505124847 | 26 | 225 | 61.2 | 0.0 | 0.00 | 0.00 | 0.00 | 65 | 917.4 |
| 20260505124739 | 26 | 180 | 38.6 | 0.0 | 0.00 | 0.00 | 0.00 | 65 | 917.4 |
| 20260505124630 | 25 | 180 | 74.0 | 0.0 | 0.00 | 0.00 | 0.00 | 65 | 917.4 |
| 20260505124522 | 25 | 180 | 74.0 | 0.0 | 0.00 | 0.00 | 0.00 | 65 | 917.5 |
| 20260505124413 | 25 | 180 | 88.5 | 0.0 | 0.00 | 0.00 | 0.00 | 65 | 917.5 |
| 20260505124305 | 25 | 90 | 53.1 | 0.0 | 0.00 | 0.00 | 0.00 | 66 | 917.5 |
| 20260505124157 | 25 | 225 | 75.6 | 0.0 | 0.00 | 0.00 | 0.00 | 66 | 917.6 |
| 20260505124048 | 24 | 225 | 96.6 | 0.0 | 0.00 | 0.00 | 0.00 | 65 | 917.6 |
| 20260505123940 | 24 | 180 | 75.6 | 0.0 | 0.00 | 0.00 | 0.00 | 65 | 917.6 |
| 20260505123831 | 24 | 225 | 74.0 | 0.0 | 0.00 | 0.00 | 0.00 | 65 | 917.5 |
| 20260505123723 | 24 | 180 | 64.4 | 0.0 | 0.00 | 0.00 | 0.00 | 65 | 917.6 |
| 20260505123614 | 25 | 180 | 167.4 | 0.0 | 0.00 | 0.00 | 0.00 | 65 | 917.6 |
| 20260505123506 | 25 | 180 | 74.0 | 0.0 | 0.00 | 0.00 | 0.00 | 65 | 917.6 |
| 20260505123357 | 25 | 180 | 128.7 | 0.0 | 0.00 | 0.00 | 0.00 | 65 | 917.5 |
| 20260505123249 | 25 | 180 | 72.4 | 0.0 | 0.00 | 0.00 | 0.00 | 65 | 917.5 |
| 20260505123141 | 25 | 180 | 75.6 | 0.0 | 0.00 | 0.00 | 0.00 | 65 | 917.5 |
| 20260505123032 | 25 | 135 | 46.7 | 0.0 | 0.00 | 0.00 | 0.00 | 64 | 917.5 |
| 20260505122924 | 25 | 180 | 16.1 | 0.0 | 0.00 | 0.00 | 0.00 | 64 | 917.5 |
| 20260505122815 | 26 | 315 | 53.1 | 0.0 | 0.00 | 0.00 | 0.00 | 63 | 917.5 |
| 20260505122707 | 26 | 180 | 77.2 | 0.0 | 0.00 | 0.00 | 0.00 | 63 | 917.5 |
| 20260505122558 | 26 | 180 | 75.6 | 0.0 | 0.00 | 0.00 | 0.00 | 63 | 917.5 |
| 20260505122450 | 27 | 180 | 37.0 | 0.0 | 0.00 | 0.00 | 0.00 | 63 | 917.3 |
| 20260505122341 | 27 | 225 | 29.0 | 0.0 | 0.00 | 0.00 | 0.00 | 63 | 917.3 |
| 20260505122233 | 28 | 90 | 9.7 | 0.0 | 0.00 | 0.00 | 0.00 | 62 | 917.3 |
| 20260505122125 | 28 | 180 | 16.1 | 0.0 | 0.00 | 0.00 | 0.00 | 61 | 917.3 |
| 20260505122016 | 29 | 225 | 90.1 | 0.0 | 0.00 | 0.00 | 0.00 | 60 | 917.3 |
| 20260505121908 | 30 | 90 | 75.6 | 0.0 | 0.00 | 0.00 | 0.00 | 60 | 917.2 |
| 20260505121759 | 31 | 180 | 128.7 | 0.0 | 0.00 | 0.00 | 0.00 | 59 | 917.3 |
| 20260505121651 | 31 | 180 | 85.3 | 0.0 | 0.00 | 0.00 | 0.00 | 59 | 917.2 |
| 20260505121542 | 32 | 135 | 22.5 | 0.0 | 0.00 | 0.00 | 0.00 | 58 | 917.2 |
| 20260505121434 | 32 | 135 | 30.6 | 0.0 | 0.00 | 0.00 | 0.00 | 58 | 917.2 |
| 20260505121325 | 33 | 135 | 46.7 | 0.0 | 0.00 | 0.00 | 0.00 | 57 | 917.2 |
| 20260505121217 | 33 | 90 | 99.8 | 0.0 | 0.00 | 0.00 | 0.00 | 57 | 917.2 |
| 20260505121109 | 34 | 315 | 41.8 | 0.0 | 0.00 | 0.00 | 0.00 | 57 | 917.1 |
| 20260505121000 | 33 | 270 | 83.7 | 0.0 | 0.00 | 0.00 | 0.00 | 58 | 917.2 |
| 20260505120852 | 32 | 180 | 40.2 | 0.0 | 0.00 | 0.00 | 0.00 | 59 | 917.3 |
| 20260505120743 | 31 | 90 | 119.1 | 0.0 | 0.00 | 0.00 | 0.00 | 60 | 917.3 |
| 20260505120635 | 31 | 90 | 178.6 | 0.0 | 0.00 | 0.00 | 0.00 | 61 | 917.1 |
| 20260505120526 | 31 | 225 | 67.6 | 0.0 | 0.00 | 0.00 | 0.00 | 62 | 917.1 |
| 20260505120418 | 30 | 135 | 67.6 | 0.0 | 0.00 | 0.00 | 0.00 | 63 | 917.2 |
| 20260505120310 | 30 | 90 | 1.6 | 0.0 | 0.00 | 0.00 | 0.00 | 63 | 917.3 |
| 20260505120201 | 30 | 0 | 17.7 | 0.0 | 0.00 | 0.00 | 0.00 | 63 | 917.3 |
| 20260505120053 | 30 | 315 | 49.9 | 0.0 | 0.00 | 0.00 | 0.00 | 63 | 917.2 |
| 20260505115944 | 29 | 90 | 30.6 | 0.0 | 0.00 | 0.00 | 0.00 | 63 | 917.3 |
| 20260505115836 | 29 | 0 | 106.2 | 0.0 | 0.00 | 0.00 | 0.00 | 63 | 917.3 |
| 20260505115727 | 29 | 45 | 30.6 | 0.0 | 0.00 | 0.00 | 0.00 | 63 | 917.2 |
| 20260505115619 | 29 | 0 | 24.1 | 0.0 | 0.00 | 0.00 | 0.00 | 64 | 917.3 |
| 20260505115510 | 29 | 180 | 14.5 | 0.0 | 0.00 | 0.00 | 0.00 | 64 | 917.3 |
| 20260505115402 | 29 | 225 | 27.4 | 0.0 | 0.00 | 0.00 | 0.00 | 63 | 917.2 |
| 20260505115254 | 30 | 45 | 4.8 | 0.0 | 0.00 | 0.00 | 0.00 | 63 | 917.3 |
| 20260505115145 | 30 | 270 | 38.6 | 0.0 | 0.00 | 0.00 | 0.00 | 62 | 917.2 |
| 20260505115037 | 30 | 180 | 64.4 | 0.0 | 0.00 | 0.00 | 0.00 | 61 | 917.2 |
| 20260505114928 | 30 | 180 | 25.7 | 0.0 | 0.00 | 0.00 | 0.00 | 61 | 917.2 |
| 20260505114820 | 30 | 225 | 95.0 | 0.0 | 0.00 | 0.00 | 0.00 | 61 | 917.2 |
| 20260505114711 | 31 | 180 | 3.2 | 0.0 | 0.00 | 0.00 | 0.00 | 61 | 917.3 |
| 20260505114603 | 31 | 180 | 53.1 | 0.0 | 0.00 | 0.00 | 0.00 | 60 | 917.3 |
| 20260505114454 | 31 | 135 | 3.2 | 0.0 | 0.00 | 0.00 | 0.00 | 60 | 917.3 |
| 20260505114346 | 32 | 0 | 27.4 | 0.0 | 0.00 | 0.00 | 0.00 | 59 | 917.3 |
| 20260505114238 | 32 | 270 | 37.0 | 0.0 | 0.00 | 0.00 | 0.00 | 57 | 917.3 |
| 20260505114129 | 33 | 180 | 16.1 | 0.0 | 0.00 | 0.00 | 0.00 | 56 | 917.4 |
| 20260505114021 | 33 | 135 | 112.7 | 0.0 | 0.00 | 0.00 | 0.00 | 54 | 917.3 |
| 20260505113912 | 35 | 180 | 72.4 | 0.0 | 0.00 | 0.00 | 0.00 | 54 | 917.2 |
| 20260505113804 | 36 | 180 | 51.5 | 0.0 | 0.00 | 0.00 | 0.00 | 54 | 917.1 |
| 20260505113655 | 36 | 180 | 46.7 | 0.0 | 0.00 | 0.00 | 0.00 | 53 | 917.1 |
| 20260505113547 | -12 | 180 | 78.9 | 0.0 | 0.00 | 0.00 | 0.00 | 53 | 917.2 |
| 20260505113439 | 38 | 180 | 136.8 | 0.0 | 0.00 | 0.00 | 0.00 | 53 | 917.1 |
| 20260505113330 | 39 | 90 | 22.5 | 0.0 | 0.00 | 0.00 | 0.00 | 53 | 917.0 |
| 20260505113222 | 40 | 315 | 4.8 | 0.0 | 0.00 | 0.00 | 0.00 | 51 | 917.1 |
| 20260505113113 | 41 | 270 | 57.9 | 0.0 | 0.00 | 0.00 | 0.00 | 49 | 917.1 |
| 20260505113005 | 42 | 45 | 46.7 | 0.0 | 0.00 | 0.00 | 0.00 | 49 | 917.2 |
| 20260505112856 | 44 | 315 | 4.8 | 0.0 | 0.00 | 0.00 | 0.00 | 48 | 917.1 |
| 20260505112748 | 46 | 270 | 64.4 | 0.0 | 0.00 | 0.00 | 0.00 | 47 | 917.0 |
| 20260505112639 | 47 | 270 | 96.6 | 0.0 | 0.00 | 0.00 | 0.00 | 45 | 917.0 |
| 20260505112531 | 48 | 0 | 32.2 | 0.0 | 0.00 | 0.00 | 0.00 | 45 | 917.0 |
| 20260505112423 | 48 | 315 | 37.0 | 0.0 | 0.00 | 0.00 | 0.00 | 43 | 917.1 |
| 20260505112314 | 48 | 0 | 82.1 | 0.0 | 0.00 | 0.00 | 0.00 | 43 | 917.1 |
| 20260505112206 | 49 | 0 | 91.7 | 0.0 | 0.00 | 0.00 | 0.00 | 42 | 917.1 |
| 20260505112057 | 48 | 135 | 88.5 | 0.0 | 0.00 | 0.00 | 0.00 | 42 | 917.2 |
| 20260505111949 | 48 | 135 | 24.1 | 0.0 | 0.00 | 0.00 | 0.00 | 43 | 917.2 |
| 20260505111840 | 48 | 180 | 37.0 | 0.0 | 0.00 | 0.00 | 0.00 | 44 | 917.1 |
| 20260505111732 | 48 | 225 | 119.1 | 0.0 | 0.00 | 0.00 | 0.00 | 44 | 917.2 |
| 20260505111623 | 48 | 180 | 146.5 | 0.0 | 0.00 | 0.00 | 0.00 | 45 | 917.2 |
| 20260505111515 | 48 | 90 | 86.9 | 0.0 | 0.00 | 0.00 | 0.00 | 46 | 917.1 |
| 20260505111407 | 48 | 225 | 17.7 | 0.0 | 0.00 | 0.00 | 0.00 | 47 | 917.2 |
| 20260505111258 | 48 | 45 | 17.7 | 0.0 | 0.00 | 0.00 | 0.00 | 48 | 917.2 |
| 20260505111150 | 48 | 135 | 22.5 | 0.0 | 0.00 | 0.00 | 0.00 | 48 | 917.2 |
| 20260505111041 | 47 | 180 | 14.5 | 0.0 | 0.00 | 0.00 | 0.00 | 48 | 917.2 |
| 20260505110933 | 47 | 225 | 20.9 | 0.0 | 0.00 | 0.00 | 0.00 | 48 | 917.3 |
| 20260505110824 | 47 | 270 | 8.0 | 0.0 | 0.00 | 0.00 | 0.00 | 49 | 917.3 |
| 20260505110716 | 46 | 225 | 29.0 | 0.0 | 0.00 | 0.00 | 0.00 | 49 | 917.3 |
| 20260505110608 | 46 | 135 | 29.0 | 0.0 | 0.00 | 0.00 | 0.00 | 50 | 917.3 |
| 20260505110459 | 46 | 135 | 11.3 | 0.0 | 0.00 | 0.00 | 0.00 | 50 | 917.2 |
| 20260505110351 | 46 | 225 | 12.9 | 0.0 | 0.00 | 0.00 | 0.00 | 51 | 917.2 |
| 20260505110242 | 45 | 225 | 86.9 | 0.0 | 0.00 | 0.00 | 0.00 | 51 | 917.2 |
| 20260505110134 | 45 | 315 | 59.5 | 0.0 | 0.00 | 0.00 | 0.00 | 51 | 917.2 |
| 20260505102138 | 39 | 270 | 25.7 | 0.0 | 0.00 | 0.00 | 0.00 | 62 | 918.0 |
| 20260505102030 | 39 | 45 | 43.5 | 0.0 | 0.00 | 0.00 | 0.00 | 62 | 917.9 |
| 20260505101921 | 39 | 0 | 12.9 | 0.0 | 0.00 | 0.00 | 0.00 | 63 | 917.9 |
| 20260505101813 | 39 | 0 | 51.5 | 0.0 | 0.00 | 0.00 | 0.00 | 62 | 917.9 |
| 20260505101705 | 39 | 315 | 78.9 | 0.0 | 0.00 | 0.00 | 0.00 | 62 | 917.9 |
| 20260505101556 | 39 | 315 | 37.0 | 0.0 | 0.00 | 0.00 | 0.00 | 62 | 917.9 |
| 20260505101448 | 38 | 315 | 27.4 | 0.0 | 0.00 | 0.00 | 0.00 | 63 | 917.9 |
| 20260505101339 | 38 | 0 | 46.7 | 0.0 | 0.00 | 0.00 | 0.00 | 63 | 918.0 |
| 20260505101232 | 38 | 0 | 24.1 | 0.0 | 0.00 | 0.00 | 0.00 | 64 | 918.0 |
| 20260505101122 | -12 | 90 | 35.4 | 0.0 | 0.00 | 0.00 | 0.00 | 64 | 918.1 |
| 20260505101014 | 36 | 90 | 20.9 | 0.0 | 0.00 | 0.00 | 0.00 | 65 | 918.0 |
| 20260505100905 | 36 | 180 | 11.3 | 0.0 | 0.00 | 0.00 | 0.00 | 65 | 918.1 |
| 20260505100757 | 35 | 45 | 14.5 | 0.0 | 0.00 | 0.00 | 0.00 | 65 | 918.1 |
| 20260505100649 | 35 | 180 | 22.5 | 0.0 | 0.00 | 0.00 | 0.00 | 64 | 918.0 |
| 20260505100541 | 35 | 225 | 14.5 | 0.0 | 0.00 | 0.00 | 0.00 | 64 | 918.1 |
| 20260505100432 | 34 | 180 | 38.6 | 0.0 | 0.00 | 0.00 | 0.00 | 64 | 918.1 |
| 20260505100323 | 34 | 180 | 46.7 | 0.0 | 0.00 | 0.00 | 0.00 | 64 | 918.2 |
| 20260505100215 | 34 | 180 | 38.6 | 0.0 | 0.00 | 0.00 | 0.00 | 64 | 918.2 |
| 20260505100106 | 34 | 180 | 22.5 | 0.0 | 0.00 | 0.00 | 0.00 | 66 | 918.2 |
| 20260505095958 | 34 | 315 | 14.5 | 0.0 | 0.00 | 0.00 | 0.00 | 66 | 918.3 |
| 20260505095849 | 34 | 315 | 57.9 | 0.0 | 0.00 | 0.00 | 0.00 | 67 | 918.2 |
| 20260505095741 | 33 | 315 | 0.0 | 0.0 | 0.00 | 0.00 | 0.00 | 67 | 918.2 |
| 20260505095633 | 33 | 270 | 25.7 | 0.0 | 0.00 | 0.00 | 0.00 | 66 | 918.3 |
| 20260505095524 | 33 | 45 | 6.4 | 0.0 | 0.00 | 0.00 | 0.00 | 66 | 918.3 |
| 20260505095416 | 33 | 0 | 14.5 | 0.0 | 0.00 | 0.00 | 0.00 | 65 | 918.3 |
| 20260505095307 | 33 | 45 | 14.5 | 0.0 | 0.00 | 0.00 | 0.00 | 63 | 918.3 |
| 20260505095159 | 33 | 45 | 56.3 | 0.0 | 0.00 | 0.00 | 0.00 | 61 | 918.3 |
| 20260505095050 | 34 | 180 | 83.7 | 0.0 | 0.00 | 0.00 | 0.00 | 59 | 918.3 |
| 20260505094942 | 35 | 180 | 35.4 | 0.0 | 0.00 | 0.00 | 0.00 | 58 | 918.2 |
| 20260505094833 | 36 | 180 | 54.7 | 0.0 | 0.00 | 0.00 | 0.00 | 58 | 918.2 |
| 20260505094725 | 37 | 135 | 30.6 | 0.0 | 0.00 | 0.00 | 0.00 | 59 | 918.2 |
| 20260505094617 | 37 | 180 | 14.5 | 0.0 | 0.00 | 0.00 | 0.00 | 62 | 918.2 |
| 20260505094508 | 38 | 315 | 22.5 | 0.0 | 0.00 | 0.00 | 0.00 | 62 | 918.2 |
| 20260505094400 | 38 | 315 | 29.0 | 0.0 | 0.00 | 0.00 | 0.00 | 63 | 918.1 |
| 20260505094251 | 38 | 315 | 27.4 | 0.0 | 0.00 | 0.00 | 0.00 | 64 | 918.2 |
| 20260505094143 | 38 | 90 | 4.8 | 0.0 | 0.00 | 0.00 | 0.00 | 64 | 918.2 |
| 20260505094035 | 38 | 315 | 6.4 | 0.0 | 0.00 | 0.00 | 0.00 | 64 | 918.2 |
| 20260505093926 | 38 | 135 | 1.6 | 0.0 | 0.00 | 0.00 | 0.00 | 64 | 918.3 |
| 20260505093818 | -12 | 180 | 20.9 | 0.0 | 0.00 | 0.00 | 0.00 | 64 | 918.3 |
| 20260505093709 | 37 | 315 | 43.5 | 0.0 | 0.00 | 0.00 | 0.00 | 64 | 918.3 |
| 20260505093601 | 36 | 315 | 20.9 | 0.0 | 0.00 | 0.00 | 0.00 | 64 | 918.3 |
| 20260505093452 | 36 | 0 | 11.3 | 0.0 | 0.00 | 0.00 | 0.00 | 64 | 918.3 |
| 20260505093344 | 35 | 90 | 32.2 | 0.0 | 0.00 | 0.00 | 0.00 | 64 | 918.3 |
| 20260505093235 | 35 | 315 | 32.2 | 0.0 | 0.00 | 0.00 | 0.00 | 64 | 918.3 |
| 20260505093127 | 35 | 315 | 82.1 | 0.0 | 0.00 | 0.00 | 0.00 | 63 | 918.4 |
| 20260505093018 | 35 | 45 | 35.4 | 0.0 | 0.00 | 0.00 | 0.00 | 62 | 918.5 |
| 20260505092910 | 34 | 90 | 70.8 | 0.0 | 0.00 | 0.00 | 0.00 | 63 | 918.5 |
| 20260505092802 | 34 | 180 | 91.7 | 0.0 | 0.00 | 0.00 | 0.00 | 62 | 918.5 |
| 20260505092653 | 34 | 225 | 45.1 | 0.0 | 0.00 | 0.00 | 0.00 | 62 | 918.4 |
| 20260505092545 | 34 | 225 | 57.9 | 0.0 | 0.00 | 0.00 | 0.00 | 62 | 918.4 |
| 20260505092436 | 34 | 90 | 67.6 | 0.0 | 0.00 | 0.00 | 0.00 | 62 | 918.5 |
| 20260505092328 | 33 | 90 | 86.9 | 0.0 | 0.00 | 0.00 | 0.00 | 62 | 918.5 |
| 20260505092219 | 33 | 90 | 38.6 | 0.0 | 0.00 | 0.00 | 0.00 | 63 | 918.5 |
| 20260505092111 | 33 | 180 | 30.6 | 0.0 | 0.00 | 0.00 | 0.00 | 64 | 918.5 |
| 20260505092003 | 33 | 180 | 59.5 | 0.0 | 0.00 | 0.00 | 0.00 | 65 | 918.5 |
| 20260505091854 | 33 | 180 | 27.4 | 0.0 | 0.00 | 0.00 | 0.00 | 65 | 918.5 |
| 20260505091746 | 32 | 135 | 3.2 | 0.0 | 0.00 | 0.00 | 0.00 | 65 | 918.5 |
| 20260505091637 | 32 | 270 | 17.7 | 0.0 | 0.00 | 0.00 | 0.00 | 64 | 918.6 |
| 20260505091529 | 32 | 90 | 85.3 | 0.0 | 0.00 | 0.00 | 0.00 | 63 | 918.6 |
| 20260505091421 | 32 | 135 | 35.4 | 0.0 | 0.00 | 0.00 | 0.00 | 63 | 918.7 |
| 20260505091312 | 31 | 180 | 99.8 | 0.0 | 0.00 | 0.00 | 0.00 | 63 | 918.6 |
| 20260505091203 | 31 | 180 | 107.8 | 0.0 | 0.00 | 0.00 | 0.00 | 63 | 918.6 |
| 20260505091055 | 31 | 180 | 14.5 | 0.0 | 0.00 | 0.00 | 0.00 | 64 | 918.6 |
| 20260505090947 | 31 | 180 | 14.5 | 0.0 | 0.00 | 0.00 | 0.00 | 64 | 918.6 |
| 20260505090838 | 31 | 225 | 14.5 | 0.0 | 0.00 | 0.00 | 0.00 | 63 | 918.6 |
| 20260505090730 | 31 | 225 | 148.1 | 0.0 | 0.00 | 0.00 | 0.00 | 62 | 918.7 |
| 20260505090621 | 31 | 180 | 80.5 | 0.0 | 0.00 | 0.00 | 0.00 | 63 | 918.7 |
| 20260505090513 | 31 | 180 | 64.4 | 0.0 | 0.00 | 0.00 | 0.00 | 63 | 918.6 |
| 20260505090404 | 31 | 225 | 95.0 | 0.0 | 0.00 | 0.00 | 0.00 | 62 | 918.6 |
| 20260505090256 | 31 | 180 | 98.2 | 0.0 | 0.00 | 0.00 | 0.00 | 62 | 918.6 |
| 20260505090147 | 31 | 180 | 135.2 | 0.0 | 0.00 | 0.00 | 0.00 | 61 | 918.6 |
| 20260505090039 | 31 | 90 | 91.7 | 0.0 | 0.00 | 0.00 | 0.00 | 61 | 918.7 |
| 20260505085931 | 32 | 225 | 107.8 | 0.0 | 0.00 | 0.00 | 0.00 | 61 | 918.7 |
| 20260505085822 | 32 | 225 | 106.2 | 0.0 | 0.00 | 0.00 | 0.00 | 62 | 918.7 |
| 20260505085714 | 32 | 180 | 104.6 | 0.0 | 0.00 | 0.00 | 0.00 | 62 | 918.7 |
| 20260505085605 | 32 | 225 | 62.8 | 0.0 | 0.00 | 0.00 | 0.00 | 62 | 918.7 |
| 20260505085457 | 32 | 180 | 74.0 | 0.0 | 0.00 | 0.00 | 0.00 | 62 | 918.7 |
| 20260505085348 | 32 | 225 | 86.9 | 0.0 | 0.00 | 0.00 | 0.00 | 62 | 918.7 |
| 20260505085240 | 32 | 225 | 98.2 | 0.0 | 0.00 | 0.00 | 0.00 | 62 | 918.7 |
| 20260505085132 | 32 | 180 | 69.2 | 0.0 | 0.00 | 0.00 | 0.00 | 64 | 918.7 |
| 20260505085023 | 32 | 180 | 46.7 | 0.0 | 0.00 | 0.00 | 0.00 | 66 | 918.7 |
| 20260505084915 | 32 | 45 | 24.1 | 0.0 | 0.00 | 0.00 | 0.00 | 69 | 918.8 |
| 20260505084806 | 31 | 0 | 1.6 | 0.0 | 0.00 | 0.00 | 0.00 | 69 | 918.8 |
| 20260505084658 | 31 | 0 | 46.7 | 0.0 | 0.00 | 0.00 | 0.00 | 68 | 918.8 |
| 20260505084549 | 30 | 180 | 38.6 | 0.0 | 0.00 | 0.00 | 0.00 | 68 | 918.8 |
| 20260505084441 | 30 | 90 | 37.0 | 0.0 | 0.00 | 0.00 | 0.00 | 68 | 918.8 |
| 20260505084332 | 29 | 225 | 20.9 | 0.0 | 0.00 | 0.00 | 0.00 | 68 | 918.8 |
| 20260505084224 | 28 | 315 | 56.3 | 0.0 | 0.00 | 0.00 | 0.00 | 69 | 918.8 |
| 20260505084115 | 28 | 135 | 46.7 | 0.0 | 0.00 | 0.00 | 0.00 | 69 | 918.8 |
| 20260505084007 | 27 | 270 | 33.8 | 0.0 | 0.00 | 0.00 | 0.00 | 69 | 918.9 |
| 20260505083859 | 27 | 225 | 25.7 | 0.0 | 0.00 | 0.00 | 0.00 | 68 | 918.9 |
| 20260505083750 | 27 | 225 | 30.6 | 0.0 | 0.00 | 0.00 | 0.00 | 67 | 918.9 |
| 20260505083642 | 27 | 45 | 35.4 | 0.0 | 0.00 | 0.00 | 0.00 | 68 | 918.9 |
| 20260505083533 | 27 | 0 | 69.2 | 0.0 | 0.00 | 0.00 | 0.00 | 67 | 918.9 |
| 20260505083425 | 27 | 0 | 93.3 | 0.0 | 0.00 | 0.00 | 0.00 | 66 | 918.9 |
| 20260505083316 | 27 | 315 | 4.8 | 0.0 | 0.00 | 0.00 | 0.00 | 66 | 918.9 |
| 20260505083208 | 27 | 90 | 1.6 | 0.0 | 0.00 | 0.00 | 0.00 | 65 | 919.0 |
| 20260505083100 | 27 | 315 | 19.3 | 0.0 | 0.00 | 0.00 | 0.00 | 64 | 919.0 |
| 20260505082951 | 28 | 0 | 25.7 | 0.0 | 0.00 | 0.00 | 0.00 | 64 | 919.0 |
| 20260505082843 | 28 | 0 | 24.1 | 0.0 | 0.00 | 0.00 | 0.00 | 63 | 919.0 |
| 20260505082734 | 28 | 315 | 35.4 | 0.0 | 0.00 | 0.00 | 0.00 | 63 | 919.0 |
| 20260505082626 | 28 | 225 | 30.6 | 0.0 | 0.00 | 0.00 | 0.00 | 62 | 919.0 |
| 20260505082517 | 28 | 90 | 16.1 | 0.0 | 0.00 | 0.00 | 0.00 | 62 | 919.0 |
| 20260505082409 | 28 | 270 | 104.6 | 0.0 | 0.00 | 0.00 | 0.00 | 62 | 919.0 |
| 20260505082300 | 29 | 180 | 93.3 | 0.0 | 0.00 | 0.00 | 0.00 | 62 | 919.1 |
| 20260505082152 | 29 | 135 | 66.0 | 0.0 | 0.00 | 0.00 | 0.00 | 62 | 919.1 |
| 20260505082044 | 29 | 180 | 72.4 | 0.0 | 0.00 | 0.00 | 0.00 | 63 | 919.0 |
| 20260505081935 | 29 | 135 | 46.7 | 0.0 | 0.00 | 0.00 | 0.00 | 62 | 919.1 |
| 20260505081827 | 29 | 135 | 14.5 | 0.0 | 0.00 | 0.00 | 0.00 | 62 | 919.1 |
| 20260505081718 | 29 | 225 | 62.8 | 0.0 | 0.00 | 0.00 | 0.00 | 62 | 919.1 |
| 20260505081610 | 29 | 180 | 53.1 | 0.0 | 0.00 | 0.00 | 0.00 | 62 | 919.0 |
| 20260505081501 | 29 | 225 | 9.7 | 0.0 | 0.00 | 0.00 | 0.00 | 62 | 919.0 |
| 20260505081353 | 29 | 225 | 16.1 | 0.0 | 0.00 | 0.00 | 0.00 | 61 | 919.1 |
| 20260505081245 | 30 | 0 | 56.3 | 0.0 | 0.00 | 0.00 | 0.00 | 61 | 919.1 |
| 20260505081137 | 30 | 0 | 67.6 | 0.0 | 0.00 | 0.00 | 0.00 | 61 | 919.0 |
| 20260505081028 | 30 | 45 | 32.2 | 0.0 | 0.00 | 0.00 | 0.00 | 61 | 919.0 |
| 20260505080919 | 30 | 135 | 95.0 | 0.0 | 0.00 | 0.00 | 0.00 | 60 | 919.1 |
| 20260505080811 | 30 | 180 | 115.9 | 0.0 | 0.00 | 0.00 | 0.00 | 60 | 919.0 |
| 20260505080702 | 30 | 180 | 43.5 | 0.0 | 0.00 | 0.00 | 0.00 | 60 | 919.0 |
| 20260505080554 | 30 | 180 | 75.6 | 0.0 | 0.00 | 0.00 | 0.00 | 61 | 919.0 |
| 20260505080445 | 30 | 180 | 33.8 | 0.0 | 0.00 | 0.00 | 0.00 | 62 | 919.1 |
| 20260505080337 | 30 | 45 | 25.7 | 0.0 | 0.00 | 0.00 | 0.00 | 62 | 919.1 |
| 20260505080229 | 29 | 180 | 49.9 | 0.0 | 0.00 | 0.00 | 0.00 | 62 | 919.1 |
| 20260505080120 | 29 | 180 | 51.5 | 0.0 | 0.00 | 0.00 | 0.00 | 62 | 919.1 |
| 20260505080012 | 28 | 135 | 16.1 | 0.0 | 0.00 | 0.00 | 0.00 | 63 | 919.1 |
| 20260505075903 | 28 | 225 | 1.6 | 0.0 | 0.00 | 0.00 | 0.00 | 63 | 919.1 |
| 20260505075755 | 28 | 135 | 48.3 | 0.0 | 0.00 | 0.00 | 0.00 | 62 | 919.2 |
| 20260505075646 | 28 | 180 | 82.1 | 0.0 | 0.00 | 0.00 | 0.00 | 63 | 919.1 |
| 20260505075538 | 27 | 180 | 12.9 | 0.0 | 0.00 | 0.00 | 0.00 | 64 | 919.2 |
| 20260505075429 | 27 | 135 | 17.7 | 0.0 | 0.00 | 0.00 | 0.00 | 63 | 919.2 |
| 20260505075321 | 27 | 180 | 46.7 | 0.0 | 0.00 | 0.00 | 0.00 | 63 | 919.2 |
| 20260505075213 | 27 | 90 | 70.8 | 0.0 | 0.00 | 0.00 | 0.00 | 63 | 919.2 |
| 20260505075104 | 27 | 135 | 19.3 | 0.0 | 0.00 | 0.00 | 0.00 | 63 | 919.3 |
| 20260505074956 | 27 | 135 | 25.7 | 0.0 | 0.00 | 0.00 | 0.00 | 63 | 919.3 |
| 20260505074847 | 26 | 135 | 30.6 | 0.0 | 0.00 | 0.00 | 0.00 | 63 | 919.2 |
| 20260505074739 | 26 | 180 | 51.5 | 0.0 | 0.00 | 0.00 | 0.00 | 63 | 919.2 |
| 20260505074630 | 26 | 225 | 43.5 | 0.0 | 0.00 | 0.00 | 0.00 | 63 | 919.2 |
| 20260505074522 | 26 | 180 | 56.3 | 0.0 | 0.00 | 0.00 | 0.00 | 64 | 919.2 |
| 20260505074413 | 26 | 225 | 38.6 | 0.0 | 0.00 | 0.00 | 0.00 | 65 | 919.2 |
| 20260505074305 | 26 | 135 | 0.0 | 0.0 | 0.00 | 0.00 | 0.00 | 67 | 919.3 |
| 20260505074157 | 26 | 135 | 12.9 | 0.0 | 0.00 | 0.00 | 0.00 | 67 | 919.3 |
| 20260505074048 | 25 | 315 | 22.5 | 0.0 | 0.00 | 0.00 | 0.00 | 67 | 919.3 |
| 20260505073940 | 24 | 315 | 1.6 | 0.0 | 0.00 | 0.00 | 0.00 | 66 | 919.3 |
| 20260505073831 | 23 | 45 | 86.9 | 0.0 | 0.00 | 0.00 | 0.00 | 66 | 919.3 |
| 20260505073723 | 23 | 180 | 62.8 | 0.0 | 0.00 | 0.00 | 0.00 | 66 | 919.3 |
| 20260505073614 | 23 | 225 | 48.3 | 0.0 | 0.00 | 0.00 | 0.00 | 66 | 919.3 |
| 20260505073506 | 23 | 180 | 75.6 | 0.0 | 0.00 | 0.00 | 0.00 | 65 | 919.3 |
| 20260505073358 | 23 | 180 | 99.8 | 0.0 | 0.00 | 0.00 | 0.00 | 65 | 919.3 |
| 20260505073249 | 23 | 180 | 119.1 | 0.0 | 0.00 | 0.00 | 0.00 | 65 | 919.4 |
| 20260505073141 | 23 | 180 | 62.8 | 0.0 | 0.00 | 0.00 | 0.00 | 65 | 919.3 |
| 20260505073033 | 23 | 135 | 45.1 | 0.0 | 0.00 | 0.00 | 0.00 | 65 | 919.3 |
| 20260505072924 | 23 | 225 | 48.3 | 0.0 | 0.00 | 0.00 | 0.00 | 64 | 919.4 |
| 20260505072815 | 23 | 180 | 82.1 | 0.0 | 0.00 | 0.00 | 0.00 | 64 | 919.3 |
| 20260505072707 | 24 | 180 | 19.3 | 0.0 | 0.00 | 0.00 | 0.00 | 64 | 919.3 |
| 20260505072558 | 24 | 90 | 69.2 | 0.0 | 0.00 | 0.00 | 0.00 | 63 | 919.4 |
| 20260505072450 | 25 | 180 | 75.6 | 0.0 | 0.00 | 0.00 | 0.00 | 63 | 919.4 |
| 20260505072342 | 25 | 180 | 75.6 | 0.0 | 0.00 | 0.00 | 0.00 | 63 | 919.4 |
| 20260505072233 | 25 | 225 | 74.0 | 0.0 | 0.00 | 0.00 | 0.00 | 63 | 919.3 |
| 20260505072125 | 25 | 180 | 29.0 | 0.0 | 0.00 | 0.00 | 0.00 | 63 | 919.3 |
| 20260505072016 | 26 | 180 | 75.6 | 0.0 | 0.00 | 0.00 | 0.00 | 62 | 919.3 |
| 20260505071908 | 26 | 180 | 14.5 | 0.0 | 0.00 | 0.00 | 0.00 | 62 | 919.3 |
| 20260505071759 | 26 | 135 | 95.0 | 0.0 | 0.00 | 0.00 | 0.00 | 61 | 919.3 |
| 20260505071651 | 27 | 180 | 74.0 | 0.0 | 0.00 | 0.00 | 0.00 | 61 | 919.3 |
| 20260505071542 | 27 | 180 | 75.6 | 0.0 | 0.00 | 0.00 | 0.00 | 61 | 919.3 |
| 20260505071434 | 27 | 180 | 75.6 | 0.0 | 0.00 | 0.00 | 0.00 | 60 | 919.2 |
| 20260505071326 | 27 | 180 | 90.1 | 0.0 | 0.00 | 0.00 | 0.00 | 60 | 919.3 |
| 20260505071217 | 27 | 180 | 49.9 | 0.0 | 0.00 | 0.00 | 0.00 | 60 | 919.2 |
| 20260505071109 | 27 | 135 | 75.6 | 0.0 | 0.00 | 0.00 | 0.00 | 60 | 919.3 |
| 20260505071000 | 27 | 180 | 38.6 | 0.0 | 0.00 | 0.00 | 0.00 | 60 | 919.3 |
| 20260505070852 | 27 | 180 | 53.1 | 0.0 | 0.00 | 0.00 | 0.00 | 60 | 919.3 |
| 20260505070743 | 27 | 180 | 78.9 | 0.0 | 0.00 | 0.00 | 0.00 | 60 | 919.3 |
| 20260505070635 | 27 | 180 | 56.3 | 0.0 | 0.00 | 0.00 | 0.00 | 60 | 919.3 |
| 20260505070526 | 27 | 90 | 43.5 | 0.0 | 0.00 | 0.00 | 0.00 | 59 | 919.3 |
| 20260505070418 | 28 | 180 | 67.6 | 0.0 | 0.00 | 0.00 | 0.00 | 59 | 919.3 |
| 20260505070310 | 28 | 90 | 125.5 | 0.0 | 0.00 | 0.00 | 0.00 | 59 | 919.3 |
| 20260505070201 | 28 | 180 | 56.3 | 0.0 | 0.00 | 0.00 | 0.00 | 59 | 919.3 |
| 20260505070053 | 28 | 225 | 61.2 | 0.0 | 0.00 | 0.00 | 0.00 | 59 | 919.3 |
| 20260505065944 | 28 | 180 | 56.3 | 0.0 | 0.00 | 0.00 | 0.00 | 60 | 919.4 |
| 20260505065837 | 28 | 225 | 40.2 | 0.0 | 0.00 | 0.00 | 0.00 | 60 | 919.4 |
| 20260505065727 | 28 | 180 | 41.8 | 0.0 | 0.00 | 0.00 | 0.00 | 61 | 919.4 |
| 20260505065619 | 28 | 180 | 11.3 | 0.0 | 0.00 | 0.00 | 0.00 | 62 | 919.4 |
| 20260505065510 | 28 | 180 | 9.7 | 0.0 | 0.00 | 0.00 | 0.00 | 63 | 919.4 |
| 20260505065402 | 27 | 225 | 0.0 | 0.0 | 0.00 | 0.00 | 0.00 | 63 | 919.5 |
| 20260505065254 | 27 | 45 | 1.6 | 0.0 | 0.00 | 0.00 | 0.00 | 63 | 919.5 |
| 20260505065145 | 27 | 90 | 12.9 | 0.0 | 0.00 | 0.00 | 0.00 | 63 | 919.6 |
| 20260505065037 | 27 | 45 | 24.1 | 0.0 | 0.00 | 0.00 | 0.00 | 63 | 919.5 |
| 20260505064928 | 26 | 0 | 22.5 | 0.0 | 0.00 | 0.00 | 0.00 | 63 | 919.5 |
| 20260505064820 | 26 | 0 | 6.4 | 0.0 | 0.00 | 0.00 | 0.00 | 63 | 919.6 |
| 20260505064711 | 26 | 0 | 20.9 | 0.0 | 0.00 | 0.00 | 0.00 | 64 | 919.6 |
| 20260505064603 | 26 | 0 | 14.5 | 0.0 | 0.00 | 0.00 | 0.00 | 64 | 919.6 |
| 20260505064455 | 26 | 0 | 1.6 | 0.0 | 0.00 | 0.00 | 0.00 | 64 | 919.6 |
| 20260505064346 | 25 | 135 | 0.0 | 0.0 | 0.00 | 0.00 | 0.00 | 65 | 919.7 |
| 20260505064238 | 25 | 315 | 0.0 | 0.0 | 0.00 | 0.00 | 0.00 | 66 | 919.7 |
| 20260505064129 | 24 | 0 | 3.2 | 0.0 | 0.00 | 0.00 | 0.00 | 66 | 919.7 |
| 20260505064021 | 24 | 0 | 19.3 | 0.0 | 0.00 | 0.00 | 0.00 | 66 | 919.7 |
| 20260505063912 | 23 | 0 | 11.3 | 0.0 | 0.00 | 0.00 | 0.00 | 66 | 919.7 |
| 20260505063804 | 23 | 0 | 37.0 | 0.0 | 0.00 | 0.00 | 0.00 | 66 | 919.7 |
| 20260505063655 | 23 | 0 | 43.5 | 0.0 | 0.00 | 0.00 | 0.00 | 66 | 919.7 |
| 20260505063547 | 23 | 0 | 22.5 | 0.0 | 0.00 | 0.00 | 0.00 | 66 | 919.7 |
| 20260505063439 | 23 | 45 | 38.6 | 0.0 | 0.00 | 0.00 | 0.00 | 66 | 919.7 |
| 20260505063330 | 22 | 0 | 51.5 | 0.0 | 0.00 | 0.00 | 0.00 | 66 | 919.8 |
| 20260505063222 | 22 | 315 | 57.9 | 0.0 | 0.00 | 0.00 | 0.00 | 66 | 919.8 |
| 20260505063113 | 22 | 0 | 9.7 | 0.0 | 0.00 | 0.00 | 0.00 | 67 | 919.8 |
| 20260505063005 | 22 | 0 | 25.7 | 0.0 | 0.00 | 0.00 | 0.00 | 67 | 919.8 |
| 20260505062856 | 22 | 0 | 19.3 | 0.0 | 0.00 | 0.00 | 0.00 | 67 | 919.8 |
| 20260505062748 | 21 | 0 | 3.2 | 0.0 | 0.00 | 0.00 | 0.00 | 67 | 919.9 |
| 20260505062640 | 21 | 0 | 8.0 | 0.0 | 0.00 | 0.00 | 0.00 | 68 | 919.9 |
| 20260505062531 | 21 | 315 | 17.7 | 0.0 | 0.00 | 0.00 | 0.00 | 68 | 920.0 |
| 20260505062423 | 21 | 0 | 20.9 | 0.0 | 0.00 | 0.00 | 0.00 | 68 | 920.0 |
| 20260505062314 | 21 | 0 | 14.5 | 0.0 | 0.00 | 0.00 | 0.00 | 68 | 920.0 |
| 20260505062206 | 20 | 0 | 8.0 | 0.0 | 0.00 | 0.00 | 0.00 | 68 | 920.0 |
| 20260505062057 | 20 | 0 | 54.7 | 0.0 | 0.00 | 0.00 | 0.00 | 68 | 920.0 |
| 20260505061949 | 20 | 0 | 0.0 | 0.0 | 0.00 | 0.00 | 0.00 | 68 | 920.0 |
| 20260505061840 | 20 | 315 | 3.2 | 0.0 | 0.00 | 0.00 | 0.00 | 68 | 920.1 |
| 20260505061732 | 20 | 315 | 11.3 | 0.0 | 0.00 | 0.00 | 0.00 | 68 | 920.0 |
| 20260505061623 | 20 | 0 | 20.9 | 0.0 | 0.00 | 0.00 | 0.00 | 69 | 920.1 |
| 20260505061515 | 20 | 45 | 16.1 | 0.0 | 0.00 | 0.00 | 0.00 | 69 | 920.1 |
| 20260505061407 | 19 | 0 | 1.6 | 0.0 | 0.00 | 0.00 | 0.00 | 70 | 920.1 |
| 20260505061258 | 19 | 0 | 3.2 | 0.0 | 0.00 | 0.00 | 0.00 | 70 | 920.1 |
| 20260505061150 | 18 | 315 | 27.4 | 0.0 | 0.00 | 0.00 | 0.00 | 70 | 920.0 |
| 20260505061041 | 18 | 0 | 6.4 | 0.0 | 0.00 | 0.00 | 0.00 | 70 | 920.0 |
| 20260505060933 | 18 | 315 | 4.8 | 0.0 | 0.00 | 0.00 | 0.00 | 71 | 920.1 |
| 20260505060824 | 17 | 315 | 3.2 | 0.0 | 0.00 | 0.00 | 0.00 | 71 | 920.1 |
| 20260505060716 | 17 | 315 | 8.0 | 0.0 | 0.00 | 0.00 | 0.00 | 71 | 920.1 |
| 20260505060608 | 17 | 0 | 0.0 | 0.0 | 0.00 | 0.00 | 0.00 | 72 | 920.2 |
| 20260505060459 | 16 | 315 | 0.0 | 0.0 | 0.00 | 0.00 | 0.00 | 72 | 920.2 |
| 20260505060351 | 16 | 315 | 0.0 | 0.0 | 0.00 | 0.00 | 0.00 | 72 | 920.2 |
| 20260505060242 | 15 | 315 | 3.2 | 0.0 | 0.00 | 0.00 | 0.00 | 72 | 920.2 |
| 20260505060134 | 15 | 315 | 17.7 | 0.0 | 0.00 | 0.00 | 0.00 | 72 | 920.2 |
| 20260505060025 | 15 | 0 | 38.6 | 0.0 | 0.00 | 0.00 | 0.00 | 73 | 920.2 |
| 20260505055917 | 14 | 0 | 27.4 | 0.0 | 0.00 | 0.00 | 0.00 | 73 | 920.2 |
| 20260505055808 | 13 | 0 | 0.0 | 0.0 | 0.00 | 0.00 | 0.00 | 73 | 920.1 |
| 20260505055700 | 13 | 45 | 0.0 | 0.0 | 0.00 | 0.00 | 0.00 | 73 | 920.2 |
| 20260505055552 | 13 | 45 | 0.0 | 0.0 | 0.00 | 0.00 | 0.00 | 74 | 920.1 |
| 20260505055443 | 12 | 45 | 0.0 | 0.0 | 0.00 | 0.00 | 0.00 | 74 | 920.2 |
| 20260505055335 | 12 | 45 | 17.7 | 0.0 | 0.00 | 0.00 | 0.00 | 74 | 920.2 |
| 20260505055226 | 12 | 0 | 33.8 | 0.0 | 0.00 | 0.00 | 0.00 | 74 | 920.1 |
| 20260505055118 | 11 | 315 | 1.6 | 0.0 | 0.00 | 0.00 | 0.00 | 73 | 920.1 |
| 20260505055009 | 11 | 315 | 6.4 | 0.0 | 0.00 | 0.00 | 0.00 | 73 | 920.2 |
| 20260505054901 | 11 | 315 | 16.1 | 0.0 | 0.00 | 0.00 | 0.00 | 73 | 920.2 |
| 20260505054752 | 11 | 315 | 30.6 | 0.0 | 0.00 | 0.00 | 0.00 | 73 | 920.2 |
| 20260505054644 | 11 | 0 | 25.7 | 0.0 | 0.00 | 0.00 | 0.00 | 73 | 920.2 |
| 20260505054536 | 11 | 0 | 1.6 | 0.0 | 0.00 | 0.00 | 0.00 | 73 | 920.3 |
| 20260505054427 | 10 | 270 | 0.0 | 0.0 | 0.00 | 0.00 | 0.00 | 73 | 920.3 |
| 20260505054319 | 10 | 315 | 20.9 | 0.0 | 0.00 | 0.00 | 0.00 | 73 | 920.3 |
| 20260505054210 | 10 | 315 | 41.8 | 0.0 | 0.00 | 0.00 | 0.00 | 73 | 920.3 |
| 20260505054102 | 10 | 0 | 0.0 | 0.0 | 0.00 | 0.00 | 0.00 | 73 | 920.3 |
| 20260505053953 | 10 | 315 | 22.5 | 0.0 | 0.00 | 0.00 | 0.00 | 73 | 920.3 |
| 20260505053845 | 10 | 270 | 32.2 | 0.0 | 0.00 | 0.00 | 0.00 | 73 | 920.3 |
| 20260505053737 | 10 | 315 | 14.5 | 0.0 | 0.00 | 0.00 | 0.00 | 73 | 920.2 |
| 20260505053628 | 10 | 315 | 1.6 | 0.0 | 0.00 | 0.00 | 0.00 | 73 | 920.2 |
| 20260505053520 | 10 | 0 | 14.5 | 0.0 | 0.00 | 0.00 | 0.00 | 73 | 920.3 |
| 20260505053411 | 10 | 315 | 0.0 | 0.0 | 0.00 | 0.00 | 0.00 | 73 | 920.2 |
| 20260505053303 | 10 | 0 | 0.0 | 0.0 | 0.00 | 0.00 | 0.00 | 73 | 920.2 |
| 20260505053154 | 10 | 315 | 0.0 | 0.0 | 0.00 | 0.00 | 0.00 | 73 | 920.2 |
| 20260505053046 | 9 | 270 | 0.0 | 0.0 | 0.00 | 0.00 | 0.00 | 73 | 920.2 |
| 20260505052829 | 9 | 315 | 0.0 | 0.0 | 0.00 | 0.00 | 0.00 | 73 | 920.2 |
| 20260505052721 | 9 | 315 | 4.8 | 0.0 | 0.00 | 0.00 | 0.00 | 73 | 920.2 |
| 20260505052612 | 9 | 0 | 16.1 | 0.0 | 0.00 | 0.00 | 0.00 | 73 | 920.3 |
| 20260505052504 | 8 | 0 | 1.6 | 0.0 | 0.00 | 0.00 | 0.00 | 73 | 920.3 |
| 20260505052355 | 8 | 315 | 16.1 | 0.0 | 0.00 | 0.00 | 0.00 | 73 | 920.3 |
| 20260505052247 | 8 | 315 | 11.3 | 0.0 | 0.00 | 0.00 | 0.00 | 73 | 920.3 |
| 20260505052138 | 8 | 315 | 3.2 | 0.0 | 0.00 | 0.00 | 0.00 | 73 | 920.3 |
| 20260505052030 | 8 | 270 | 22.5 | 0.0 | 0.00 | 0.00 | 0.00 | 73 | 920.4 |
| 20260505051922 | 8 | 270 | 3.2 | 0.0 | 0.00 | 0.00 | 0.00 | 73 | 920.3 |
| 20260505051813 | 8 | 315 | 12.9 | 0.0 | 0.00 | 0.00 | 0.00 | 73 | 920.4 |
| 20260505051705 | 8 | 270 | 17.7 | 0.0 | 0.00 | 0.00 | 0.00 | 73 | 920.5 |
| 20260505051556 | 8 | 0 | 9.7 | 0.0 | 0.00 | 0.00 | 0.00 | 73 | 920.4 |
| 20260505051448 | 8 | 315 | 3.2 | 0.0 | 0.00 | 0.00 | 0.00 | 73 | 920.4 |
| 20260505051339 | 8 | 315 | 16.1 | 0.0 | 0.00 | 0.00 | 0.00 | 73 | 920.5 |
| 20260505051231 | 8 | 0 | 25.7 | 0.0 | 0.00 | 0.00 | 0.00 | 73 | 920.4 |
| 20260505051122 | 8 | 0 | 1.6 | 0.0 | 0.00 | 0.00 | 0.00 | 73 | 920.5 |
| 20260505051014 | 8 | 315 | 19.3 | 0.0 | 0.00 | 0.00 | 0.00 | 73 | 920.4 |
| 20260505050906 | 8 | 0 | 11.3 | 0.0 | 0.00 | 0.00 | 0.00 | 73 | 920.4 |
| 20260505050757 | 7 | 315 | 1.6 | 0.0 | 0.00 | 0.00 | 0.00 | 73 | 920.4 |
| 20260505050649 | 7 | 270 | 12.9 | 0.0 | 0.00 | 0.00 | 0.00 | 73 | 920.4 |
| 20260505050540 | 7 | 270 | 1.6 | 0.0 | 0.00 | 0.00 | 0.00 | 73 | 920.4 |
| 20260505050432 | 7 | 315 | 12.9 | 0.0 | 0.00 | 0.00 | 0.00 | 73 | 920.5 |
| 20260505050323 | 7 | 315 | 53.1 | 0.0 | 0.00 | 0.00 | 0.00 | 73 | 920.4 |
| 20260505050215 | 7 | 0 | 0.0 | 0.0 | 0.00 | 0.00 | 0.00 | 73 | 920.5 |
| 20260505050106 | 7 | 315 | 12.9 | 0.0 | 0.00 | 0.00 | 0.00 | 73 | 920.5 |
| 20260505041746 | 7 | 270 | 6.4 | 0.0 | 0.00 | 0.00 | 0.00 | 73 | 920.5 |
| 20260505041637 | 7 | 225 | 0.0 | 0.0 | 0.00 | 0.00 | 0.00 | 73 | 920.5 |
| 20260505041529 | 6 | 90 | 1.6 | 0.0 | 0.00 | 0.00 | 0.00 | 73 | 920.5 |
| 20260505041420 | 6 | 45 | 0.0 | 0.0 | 0.00 | 0.00 | 0.00 | 73 | 920.5 |
| 20260505041312 | 6 | 315 | 0.0 | 0.0 | 0.00 | 0.00 | 0.00 | 73 | 920.5 |
| 20260505041204 | 6 | 315 | 1.6 | 0.0 | 0.00 | 0.00 | 0.00 | 73 | 920.4 |
| 20260505040947 | 6 | 315 | 29.0 | 0.0 | 0.00 | 0.00 | 0.00 | 73 | 920.4 |
| 20260505040838 | 6 | 0 | 61.2 | 0.0 | 0.00 | 0.00 | 0.00 | 73 | 920.4 |
| 20260505040730 | 6 | 0 | 1.6 | 0.0 | 0.00 | 0.00 | 0.00 | 73 | 920.4 |
| 20260505040621 | 6 | 315 | 12.9 | 0.0 | 0.00 | 0.00 | 0.00 | 73 | 920.5 |
| 20260505040405 | 6 | 315 | 1.6 | 0.0 | 0.00 | 0.00 | 0.00 | 72 | 920.5 |
| 20260505040256 | 6 | 270 | 38.6 | 0.0 | 0.00 | 0.00 | 0.00 | 72 | 920.4 |
| 20260505040148 | 6 | 315 | 35.4 | 0.0 | 0.00 | 0.00 | 0.00 | 72 | 920.4 |
| 20260505035931 | 6 | 315 | 3.2 | 0.0 | 0.00 | 0.00 | 0.00 | 72 | 920.5 |
| 20260505035822 | 6 | 315 | 0.0 | 0.0 | 0.00 | 0.00 | 0.00 | 72 | 920.4 |
| 20260505035714 | 6 | 0 | 11.3 | 0.0 | 0.00 | 0.00 | 0.00 | 72 | 920.4 |
| 20260505035605 | 6 | 315 | 11.3 | 0.0 | 0.00 | 0.00 | 0.00 | 72 | 920.5 |
| 20260505035457 | 6 | 315 | 14.5 | 0.0 | 0.00 | 0.00 | 0.00 | 72 | 920.4 |
| 20260505035349 | 6 | 315 | 3.2 | 0.0 | 0.00 | 0.00 | 0.00 | 72 | 920.5 |
| 20260505035240 | 6 | 0 | 0.0 | 0.0 | 0.00 | 0.00 | 0.00 | 72 | 920.4 |
| 20260505035132 | 6 | 90 | 0.0 | 0.0 | 0.00 | 0.00 | 0.00 | 72 | 920.4 |
| 20260505035023 | 6 | 270 | 11.3 | 0.0 | 0.00 | 0.00 | 0.00 | 72 | 920.4 |
| 20260505034915 | 6 | 270 | 11.3 | 0.0 | 0.00 | 0.00 | 0.00 | 72 | 920.4 |
| 20260505034806 | 6 | 315 | 19.3 | 0.0 | 0.00 | 0.00 | 0.00 | 72 | 920.4 |
| 20260505034658 | 6 | 315 | 24.1 | 0.0 | 0.00 | 0.00 | 0.00 | 72 | 920.5 |
| 20260505034549 | 6 | 0 | 0.0 | 0.0 | 0.00 | 0.00 | 0.00 | 72 | 920.5 |
| 20260505034441 | 6 | 315 | 3.2 | 0.0 | 0.00 | 0.00 | 0.00 | 72 | 920.5 |
| 20260505034333 | 6 | 270 | 1.6 | 0.0 | 0.00 | 0.00 | 0.00 | 72 | 920.5 |
| 20260505034225 | 6 | 315 | 11.3 | 0.0 | 0.00 | 0.00 | 0.00 | 72 | 920.5 |
| 20260505034116 | 6 | 315 | 54.7 | 0.0 | 0.00 | 0.00 | 0.00 | 72 | 920.5 |
| 20260505034008 | 6 | 315 | 33.8 | 0.0 | 0.00 | 0.00 | 0.00 | 72 | 920.5 |
| 20260505033900 | 6 | 0 | 11.3 | 0.0 | 0.00 | 0.00 | 0.00 | 72 | 920.6 |
| 20260505033752 | 6 | 0 | 24.1 | 0.0 | 0.00 | 0.00 | 0.00 | 73 | 920.6 |
| 20260505033643 | 6 | 315 | 3.2 | 0.0 | 0.00 | 0.00 | 0.00 | 73 | 920.6 |
| 20260505033535 | 6 | 315 | 11.3 | 0.0 | 0.00 | 0.00 | 0.00 | 73 | 920.6 |
| 20260505033318 | 6 | 315 | 14.5 | 0.0 | 0.00 | 0.00 | 0.00 | 73 | 920.7 |
| 20260505033210 | 6 | 315 | 6.4 | 0.0 | 0.00 | 0.00 | 0.00 | 73 | 920.6 |
| 20260505033102 | 6 | 315 | 14.5 | 0.0 | 0.00 | 0.00 | 0.00 | 72 | 920.6 |
| 20260505032954 | 6 | 315 | 17.7 | 0.0 | 0.00 | 0.00 | 0.00 | 72 | 920.6 |
| 20260505032845 | 6 | 270 | 4.8 | 0.0 | 0.00 | 0.00 | 0.00 | 72 | 920.6 |
| 20260505032737 | 6 | 270 | 29.0 | 0.0 | 0.00 | 0.00 | 0.00 | 72 | 920.6 |
| 20260505032629 | 6 | 0 | 0.0 | 0.0 | 0.00 | 0.00 | 0.00 | 72 | 920.6 |
| 20260505032521 | 6 | 315 | 1.6 | 0.0 | 0.00 | 0.00 | 0.00 | 72 | 920.7 |
| 20260505032412 | 6 | 315 | 9.7 | 0.0 | 0.00 | 0.00 | 0.00 | 72 | 920.6 |
| 20260505032304 | 6 | 315 | 0.0 | 0.0 | 0.00 | 0.00 | 0.00 | 72 | 920.6 |
| 20260505032156 | 6 | 0 | 1.6 | 0.0 | 0.00 | 0.00 | 0.00 | 72 | 920.7 |
| 20260505032047 | 6 | 0 | 14.5 | 0.0 | 0.00 | 0.00 | 0.00 | 72 | 920.6 |
| 20260505031939 | 6 | 0 | 0.0 | 0.0 | 0.00 | 0.00 | 0.00 | 72 | 920.6 |
| 20260505031831 | 6 | 315 | 3.2 | 0.0 | 0.00 | 0.00 | 0.00 | 72 | 920.7 |
| 20260505031722 | 6 | 225 | 1.6 | 0.0 | 0.00 | 0.00 | 0.00 | 72 | 920.6 |
| 20260505031614 | 6 | 180 | 0.0 | 0.0 | 0.00 | 0.00 | 0.00 | 72 | 920.6 |
| 20260505031506 | 6 | 315 | 0.0 | 0.0 | 0.00 | 0.00 | 0.00 | 72 | 920.7 |
| 20260505031358 | 6 | 315 | 0.0 | 0.0 | 0.00 | 0.00 | 0.00 | 72 | 920.7 |
| 20260505031249 | 6 | 315 | 0.0 | 0.0 | 0.00 | 0.00 | 0.00 | 72 | 920.6 |
| 20260505031141 | 6 | 0 | 0.0 | 0.0 | 0.00 | 0.00 | 0.00 | 72 | 920.7 |
| 20260505031033 | 6 | 0 | 0.0 | 0.0 | 0.00 | 0.00 | 0.00 | 72 | 920.7 |
| 20260505030925 | 6 | 315 | 3.2 | 0.0 | 0.00 | 0.00 | 0.00 | 72 | 920.7 |
| 20260505030816 | 6 | 315 | 1.6 | 0.0 | 0.00 | 0.00 | 0.00 | 72 | 920.8 |
| 20260505030708 | 6 | 315 | 0.0 | 0.0 | 0.00 | 0.00 | 0.00 | 72 | 920.7 |
| 20260505030600 | 6 | 315 | 17.7 | 0.0 | 0.00 | 0.00 | 0.00 | 72 | 920.8 |
| 20260505030451 | 6 | 315 | 22.5 | 0.0 | 0.00 | 0.00 | 0.00 | 72 | 920.7 |
| 20260505030343 | 6 | 0 | 0.0 | 0.0 | 0.00 | 0.00 | 0.00 | 72 | 920.8 |
| 20260505030235 | 6 | 315 | 9.7 | 0.0 | 0.00 | 0.00 | 0.00 | 72 | 920.8 |
| 20260505030127 | 6 | 315 | 3.2 | 0.0 | 0.00 | 0.00 | 0.00 | 72 | 920.8 |
| 20260505030018 | 6 | 315 | 17.7 | 0.0 | 0.00 | 0.00 | 0.00 | 72 | 920.8 |
| 20260505025910 | 6 | 0 | 0.0 | 0.0 | 0.00 | 0.00 | 0.00 | 72 | 920.9 |
| 20260505025802 | 6 | 315 | 0.0 | 0.0 | 0.00 | 0.00 | 0.00 | 72 | 920.8 |
| 20260505025654 | 6 | 315 | 0.0 | 0.0 | 0.00 | 0.00 | 0.00 | 72 | 920.8 |
| 20260505025545 | 6 | 315 | 0.0 | 0.0 | 0.00 | 0.00 | 0.00 | 72 | 920.9 |
| 20260505025437 | 6 | 315 | 9.7 | 0.0 | 0.00 | 0.00 | 0.00 | 72 | 920.9 |
| 20260505025329 | 6 | 315 | 0.0 | 0.0 | 0.00 | 0.00 | 0.00 | 72 | 920.9 |
| 20260505025220 | 6 | 315 | 3.2 | 0.0 | 0.00 | 0.00 | 0.00 | 72 | 920.9 |
| 20260505025112 | 6 | 315 | 30.6 | 0.0 | 0.00 | 0.00 | 0.00 | 72 | 920.9 |
| 20260505025004 | 6 | 315 | 17.7 | 0.0 | 0.00 | 0.00 | 0.00 | 72 | 920.9 |
| 20260505024856 | 6 | 0 | 0.0 | 0.0 | 0.00 | 0.00 | 0.00 | 72 | 920.9 |
| 20260505024747 | 6 | 270 | 0.0 | 0.0 | 0.00 | 0.00 | 0.00 | 72 | 920.9 |
| 20260505024639 | 6 | 0 | 24.1 | 0.0 | 0.00 | 0.00 | 0.00 | 72 | 920.9 |
| 20260505024531 | 6 | 0 | 8.0 | 0.0 | 0.00 | 0.00 | 0.00 | 72 | 920.9 |
| 20260505024423 | 6 | 315 | 1.6 | 0.0 | 0.00 | 0.00 | 0.00 | 72 | 920.9 |
| 20260505024314 | 6 | 315 | 1.6 | 0.0 | 0.00 | 0.00 | 0.00 | 72 | 920.9 |
| 20260505024206 | 6 | 315 | 1.6 | 0.0 | 0.00 | 0.00 | 0.00 | 72 | 921.0 |
| 20260505024058 | 6 | 315 | 12.9 | 0.0 | 0.00 | 0.00 | 0.00 | 72 | 920.9 |
| 20260505023949 | 6 | 315 | 0.0 | 0.0 | 0.00 | 0.00 | 0.00 | 72 | 921.0 |
| 20260505023733 | 6 | 0 | 14.5 | 0.0 | 0.00 | 0.00 | 0.00 | 72 | 921.0 |
| 20260505023625 | 7 | 315 | 1.6 | 0.0 | 0.00 | 0.00 | 0.00 | 72 | 921.0 |
| 20260505023516 | 7 | 0 | 11.3 | 0.0 | 0.00 | 0.00 | 0.00 | 72 | 921.0 |
| 20260505023408 | 7 | 45 | 0.0 | 0.0 | 0.00 | 0.00 | 0.00 | 72 | 921.0 |
| 20260505023300 | 7 | 0 | 11.3 | 0.0 | 0.00 | 0.00 | 0.00 | 72 | 921.0 |
| 20260505023151 | 7 | 0 | 30.6 | 0.0 | 0.00 | 0.00 | 0.00 | 72 | 921.0 |
| 20260505023043 | 7 | 0 | 0.0 | 0.0 | 0.00 | 0.00 | 0.00 | 72 | 921.0 |
| 20260505022935 | 7 | 315 | 0.0 | 0.0 | 0.00 | 0.00 | 0.00 | 72 | 921.1 |
| 20260505022827 | 7 | 315 | 0.0 | 0.0 | 0.00 | 0.00 | 0.00 | 72 | 921.1 |
| 20260505022718 | 7 | 0 | 1.6 | 0.0 | 0.00 | 0.00 | 0.00 | 72 | 921.1 |
| 20260505022610 | 7 | 315 | 12.9 | 0.0 | 0.00 | 0.00 | 0.00 | 72 | 921.1 |
| 20260505022502 | 7 | 0 | 20.9 | 0.0 | 0.00 | 0.00 | 0.00 | 72 | 921.0 |
| 20260505022354 | 7 | 0 | 0.0 | 0.0 | 0.00 | 0.00 | 0.00 | 72 | 921.0 |
| 20260505022246 | 7 | 315 | 0.0 | 0.0 | 0.00 | 0.00 | 0.00 | 72 | 921.0 |
| 20260505022137 | 7 | 315 | 0.0 | 0.0 | 0.00 | 0.00 | 0.00 | 72 | 921.0 |
| 20260505022029 | 7 | 315 | 1.6 | 0.0 | 0.00 | 0.00 | 0.00 | 72 | 921.0 |
| 20260505021920 | 7 | 315 | 1.6 | 0.0 | 0.00 | 0.00 | 0.00 | 72 | 921.1 |
| 20260505021812 | 7 | 0 | 1.6 | 0.0 | 0.00 | 0.00 | 0.00 | 72 | 921.1 |
| 20260505021704 | 7 | 270 | 0.0 | 0.0 | 0.00 | 0.00 | 0.00 | 72 | 921.1 |
| 20260505021556 | 7 | 315 | 0.0 | 0.0 | 0.00 | 0.00 | 0.00 | 72 | 921.1 |
| 20260505021447 | 7 | 315 | 0.0 | 0.0 | 0.00 | 0.00 | 0.00 | 72 | 921.1 |
| 20260505021339 | 7 | 315 | 4.8 | 0.0 | 0.00 | 0.00 | 0.00 | 72 | 921.1 |
| 20260505021123 | 7 | 0 | 0.0 | 0.0 | 0.00 | 0.00 | 0.00 | 72 | 921.1 |
| 20260505021014 | 7 | 315 | 11.3 | 0.0 | 0.00 | 0.00 | 0.00 | 72 | 921.1 |
| 20260505020906 | 7 | 315 | 1.6 | 0.0 | 0.00 | 0.00 | 0.00 | 72 | 921.1 |
| 20260505020758 | 7 | 315 | 48.3 | 0.0 | 0.00 | 0.00 | 0.00 | 72 | 921.1 |
| 20260505020649 | 7 | 315 | 0.0 | 0.0 | 0.00 | 0.00 | 0.00 | 72 | 921.2 |
| 20260505020541 | 7 | 0 | 1.6 | 0.0 | 0.00 | 0.00 | 0.00 | 72 | 921.2 |
| 20260505020433 | 7 | 0 | 0.0 | 0.0 | 0.00 | 0.00 | 0.00 | 72 | 921.2 |
| 20260505020324 | 7 | 0 | 0.0 | 0.0 | 0.00 | 0.00 | 0.00 | 72 | 921.2 |
| 20260505020216 | 7 | 0 | 11.3 | 0.0 | 0.00 | 0.00 | 0.00 | 72 | 921.2 |
| 20260505020108 | 7 | 0 | 1.6 | 0.0 | 0.00 | 0.00 | 0.00 | 72 | 921.2 |
| 20260505020000 | 7 | 315 | 12.9 | 0.0 | 0.00 | 0.00 | 0.00 | 72 | 921.2 |
| 20260505015851 | 7 | 270 | 0.0 | 0.0 | 0.00 | 0.00 | 0.00 | 72 | 921.2 |
| 20260505015743 | 7 | 315 | 25.7 | 0.0 | 0.00 | 0.00 | 0.00 | 72 | 921.3 |
| 20260505015635 | 7 | 0 | 30.6 | 0.0 | 0.00 | 0.00 | 0.00 | 72 | 921.3 |
| 20260505015527 | 7 | 0 | 8.0 | 0.0 | 0.00 | 0.00 | 0.00 | 72 | 921.3 |
| 20260505015418 | 7 | 315 | 8.0 | 0.0 | 0.00 | 0.00 | 0.00 | 72 | 921.2 |
| 20260505015310 | 7 | 0 | 22.5 | 0.0 | 0.00 | 0.00 | 0.00 | 72 | 921.3 |
| 20260505015202 | 7 | 270 | 4.8 | 0.0 | 0.00 | 0.00 | 0.00 | 72 | 921.3 |
| 20260505015053 | 7 | 270 | 0.0 | 0.0 | 0.00 | 0.00 | 0.00 | 72 | 921.3 |
| 20260505014945 | 7 | 270 | 11.3 | 0.0 | 0.00 | 0.00 | 0.00 | 72 | 921.3 |
| 20260505014729 | 7 | 315 | 19.3 | 0.0 | 0.00 | 0.00 | 0.00 | 72 | 921.3 |
| 20260505014620 | 7 | 0 | 1.6 | 0.0 | 0.00 | 0.00 | 0.00 | 72 | 921.3 |
| 20260505014512 | 7 | 0 | 12.9 | 0.0 | 0.00 | 0.00 | 0.00 | 72 | 921.3 |
| 20260505014404 | 7 | 315 | 1.6 | 0.0 | 0.00 | 0.00 | 0.00 | 72 | 921.3 |
| 20260505014255 | 7 | 315 | 1.6 | 0.0 | 0.00 | 0.00 | 0.00 | 72 | 921.4 |
| 20260505014147 | 7 | 0 | 0.0 | 0.0 | 0.00 | 0.00 | 0.00 | 72 | 921.4 |
| 20260505014039 | 7 | 0 | 6.4 | 0.0 | 0.00 | 0.00 | 0.00 | 72 | 921.3 |
| 20260505013931 | 7 | 0 | 0.0 | 0.0 | 0.00 | 0.00 | 0.00 | 72 | 921.3 |
| 20260505013822 | 7 | 315 | 0.0 | 0.0 | 0.00 | 0.00 | 0.00 | 72 | 921.3 |
| 20260505013714 | 7 | 315 | 0.0 | 0.0 | 0.00 | 0.00 | 0.00 | 72 | 921.3 |
| 20260505013606 | 7 | 315 | 0.0 | 0.0 | 0.00 | 0.00 | 0.00 | 72 | 921.3 |
| 20260505013458 | 7 | 315 | 0.0 | 0.0 | 0.00 | 0.00 | 0.00 | 72 | 921.3 |
| 20260505013349 | 7 | 315 | 0.0 | 0.0 | 0.00 | 0.00 | 0.00 | 72 | 921.3 |
| 20260505013241 | 7 | 315 | 0.0 | 0.0 | 0.00 | 0.00 | 0.00 | 72 | 921.3 |
| 20260505013133 | 7 | 315 | 0.0 | 0.0 | 0.00 | 0.00 | 0.00 | 72 | 921.3 |
| 20260505013024 | 7 | 315 | 0.0 | 0.0 | 0.00 | 0.00 | 0.00 | 72 | 921.3 |
| 20260505012808 | 7 | 0 | 0.0 | 0.0 | 0.00 | 0.00 | 0.00 | 73 | 921.3 |
| 20260505012700 | 7 | 315 | 0.0 | 0.0 | 0.00 | 0.00 | 0.00 | 73 | 921.3 |
| 20260505012551 | 7 | 315 | 0.0 | 0.0 | 0.00 | 0.00 | 0.00 | 73 | 921.3 |
| 20260505012443 | 7 | 315 | 0.0 | 0.0 | 0.00 | 0.00 | 0.00 | 72 | 921.4 |
| 20260505012335 | 8 | 315 | 0.0 | 0.0 | 0.00 | 0.00 | 0.00 | 72 | 921.4 |
| 20260505012227 | 8 | 315 | 0.0 | 0.0 | 0.00 | 0.00 | 0.00 | 72 | 921.4 |
| 20260505012118 | 7 | 315 | 0.0 | 0.0 | 0.00 | 0.00 | 0.00 | 73 | 921.4 |
| 20260505012010 | 8 | 270 | 0.0 | 0.0 | 0.00 | 0.00 | 0.00 | 72 | 921.4 |
| 20260505011902 | 8 | 0 | 0.0 | 0.0 | 0.00 | 0.00 | 0.00 | 73 | 921.4 |
| 20260505011753 | 8 | 0 | 29.0 | 0.0 | 0.00 | 0.00 | 0.00 | 73 | 921.4 |
| 20260505011645 | 8 | 315 | 14.5 | 0.0 | 0.00 | 0.00 | 0.00 | 73 | 921.4 |
| 20260505011537 | 8 | 0 | 0.0 | 0.0 | 0.00 | 0.00 | 0.00 | 73 | 921.4 |
| 20260505011429 | 8 | 315 | 0.0 | 0.0 | 0.00 | 0.00 | 0.00 | 73 | 921.4 |
| 20260505011320 | 8 | 315 | 4.8 | 0.0 | 0.00 | 0.00 | 0.00 | 73 | 921.5 |
| 20260505011212 | 8 | 315 | 0.0 | 0.0 | 0.00 | 0.00 | 0.00 | 73 | 921.4 |
| 20260505011104 | 8 | 0 | 14.5 | 0.0 | 0.00 | 0.00 | 0.00 | 73 | 921.5 |
| 20260505010955 | 8 | 0 | 0.0 | 0.0 | 0.00 | 0.00 | 0.00 | 73 | 921.5 |
| 20260505010847 | 8 | 315 | 0.0 | 0.0 | 0.00 | 0.00 | 0.00 | 73 | 921.5 |
| 20260505010739 | 8 | 315 | 0.0 | 0.0 | 0.00 | 0.00 | 0.00 | 73 | 921.5 |
| 20260505010631 | 8 | 315 | 1.6 | 0.0 | 0.00 | 0.00 | 0.00 | 73 | 921.5 |
| 20260505010522 | 8 | 315 | 0.0 | 0.0 | 0.00 | 0.00 | 0.00 | 73 | 921.5 |
| 20260505010414 | 8 | 315 | 16.1 | 0.0 | 0.00 | 0.00 | 0.00 | 73 | 921.6 |
| 20260505010306 | 8 | 315 | 35.4 | 0.0 | 0.00 | 0.00 | 0.00 | 73 | 921.6 |
| 20260505010158 | 8 | 0 | 17.7 | 0.0 | 0.00 | 0.00 | 0.00 | 73 | 921.5 |
| 20260505010049 | 8 | 45 | 0.0 | 0.0 | 0.00 | 0.00 | 0.00 | 72 | 921.6 |
| 20260505005941 | 8 | 315 | 0.0 | 0.0 | 0.00 | 0.00 | 0.00 | 72 | 921.6 |
| 20260505005833 | 8 | 270 | 1.6 | 0.0 | 0.00 | 0.00 | 0.00 | 72 | 921.6 |
| 20260505005724 | 8 | 270 | 24.1 | 0.0 | 0.00 | 0.00 | 0.00 | 72 | 921.6 |
| 20260505005616 | 8 | 0 | 0.0 | 0.0 | 0.00 | 0.00 | 0.00 | 72 | 921.6 |
| 20260505005508 | 8 | 315 | 11.3 | 0.0 | 0.00 | 0.00 | 0.00 | 72 | 921.6 |
| 20260505005400 | 8 | 315 | 25.7 | 0.0 | 0.00 | 0.00 | 0.00 | 72 | 921.6 |
| 20260505005251 | 8 | 0 | 4.8 | 0.0 | 0.00 | 0.00 | 0.00 | 72 | 921.6 |
| 20260505005143 | 8 | 315 | 11.3 | 0.0 | 0.00 | 0.00 | 0.00 | 72 | 921.6 |
| 20260505005035 | 8 | 315 | 3.2 | 0.0 | 0.00 | 0.00 | 0.00 | 72 | 921.7 |
| 20260505004927 | 8 | 315 | 1.6 | 0.0 | 0.00 | 0.00 | 0.00 | 72 | 921.7 |
| 20260505004818 | 8 | 0 | 1.6 | 0.0 | 0.00 | 0.00 | 0.00 | 72 | 921.7 |
| 20260505004710 | 8 | 315 | 0.0 | 0.0 | 0.00 | 0.00 | 0.00 | 72 | 921.7 |
| 20260505004602 | 8 | 315 | 14.5 | 0.0 | 0.00 | 0.00 | 0.00 | 72 | 921.7 |
| 20260505004453 | 8 | 0 | 3.2 | 0.0 | 0.00 | 0.00 | 0.00 | 72 | 921.7 |
| 20260505004345 | 8 | 315 | 14.5 | 0.0 | 0.00 | 0.00 | 0.00 | 72 | 921.7 |
| 20260505004237 | 8 | 315 | 0.0 | 0.0 | 0.00 | 0.00 | 0.00 | 72 | 921.7 |
| 20260505004129 | 8 | 315 | 0.0 | 0.0 | 0.00 | 0.00 | 0.00 | 72 | 921.7 |
| 20260505004020 | 8 | 315 | 3.2 | 0.0 | 0.00 | 0.00 | 0.00 | 72 | 921.7 |
| 20260505003804 | 8 | 315 | 8.0 | 0.0 | 0.00 | 0.00 | 0.00 | 72 | 921.8 |
| 20260505003656 | 9 | 0 | 0.0 | 0.0 | 0.00 | 0.00 | 0.00 | 73 | 921.8 |
| 20260505003547 | 9 | 315 | 0.0 | 0.0 | 0.00 | 0.00 | 0.00 | 73 | 921.8 |
| 20260505003439 | 9 | 315 | 0.0 | 0.0 | 0.00 | 0.00 | 0.00 | 73 | 921.8 |
| 20260505003331 | 9 | 315 | 0.0 | 0.0 | 0.00 | 0.00 | 0.00 | 73 | 921.8 |
| 20260505003222 | 9 | 315 | 0.0 | 0.0 | 0.00 | 0.00 | 0.00 | 73 | 921.9 |
| 20260505003114 | 9 | 315 | 14.5 | 0.0 | 0.00 | 0.00 | 0.00 | 73 | 921.9 |
| 20260505003006 | 9 | 0 | 0.0 | 0.0 | 0.00 | 0.00 | 0.00 | 73 | 921.9 |
| 20260505002749 | 9 | 0 | 0.0 | 0.0 | 0.00 | 0.00 | 0.00 | 73 | 921.9 |
| 20260505002641 | 9 | 0 | 0.0 | 0.0 | 0.00 | 0.00 | 0.00 | 73 | 921.9 |
| 20260505002533 | 9 | 315 | 0.0 | 0.0 | 0.00 | 0.00 | 0.00 | 73 | 921.9 |
| 20260505002424 | 9 | 315 | 0.0 | 0.0 | 0.00 | 0.00 | 0.00 | 73 | 921.9 |